Wetterdaten: Dienstag, 14.03.2017
Datum Zeit Temp. A. Feuchte A. Luftdruck Regen Wind Richtung Richtung Sonnenschein ET UV Solar Taupunkt Windchill Windben Empfang
14.03.2017 00:00 3,3 C 86 % 1028,1 hPa 0,0 l/m 6,2 km/h (2 Bft) S-SW 213 0 min 0,000 mm 0,0 UV-I 0 W/m 1,2 C 3,3 C 9,7 km/h (2 Bft) 100,00 %
14.03.2017 00:02 3,3 C 86 % 1028,1 hPa 0,0 l/m 6,3 km/h (2 Bft) S-SW 213 0 min 0,000 mm 0,0 UV-I 0 W/m 1,2 C 3,3 C 8,0 km/h (2 Bft) 97,78 %
14.03.2017 00:04 3,3 C 86 % 1028,1 hPa 0,0 l/m 6,5 km/h (2 Bft) S-SW 208 0 min 0,000 mm 0,0 UV-I 0 W/m 1,2 C 3,2 C 9,7 km/h (2 Bft) 97,44 %
14.03.2017 00:06 3,3 C 86 % 1028,2 hPa 0,0 l/m 8,3 km/h (2 Bft) S-SW 204 0 min 0,000 mm 0,0 UV-I 0 W/m 1,2 C 1,6 C 11,3 km/h (2 Bft) 96,23 %
14.03.2017 00:08 3,3 C 86 % 1028,1 hPa 0,0 l/m 6,9 km/h (2 Bft) S-SW 207 0 min 0,000 mm 0,0 UV-I 0 W/m 1,2 C 2,8 C 9,7 km/h (2 Bft) 97,87 %
14.03.2017 00:10 3,3 C 86 % 1028,2 hPa 0,0 l/m 7,9 km/h (2 Bft) S-SW 207 0 min 0,000 mm 0,0 UV-I 0 W/m 1,2 C 1,9 C 11,3 km/h (2 Bft) 100,00 %
14.03.2017 00:12 3,3 C 86 % 1028,2 hPa 0,0 l/m 7,7 km/h (2 Bft) SW 217 0 min 0,000 mm 0,0 UV-I 0 W/m 1,2 C 2,1 C 9,7 km/h (2 Bft) 98,08 %
14.03.2017 00:14 3,3 C 86 % 1028,2 hPa 0,0 l/m 8,9 km/h (2 Bft) S-SW 207 0 min 0,000 mm 0,0 UV-I 0 W/m 1,2 C 1,1 C 12,9 km/h (3 Bft) 100,00 %
14.03.2017 00:16 3,3 C 86 % 1028,2 hPa 0,0 l/m 7,4 km/h (2 Bft) S-SW 201 0 min 0,000 mm 0,0 UV-I 0 W/m 1,2 C 2,4 C 11,3 km/h (2 Bft) 100,00 %
14.03.2017 00:18 3,4 C 86 % 1028,2 hPa 0,0 l/m 7,9 km/h (2 Bft) S-SW 205 0 min 0,000 mm 0,0 UV-I 0 W/m 1,3 C 2,0 C 11,3 km/h (2 Bft) 100,00 %
14.03.2017 00:20 3,4 C 86 % 1028,2 hPa 0,0 l/m 8,2 km/h (2 Bft) S-SW 210 0 min 0,000 mm 0,0 UV-I 0 W/m 1,3 C 1,7 C 11,3 km/h (2 Bft) 98,00 %
14.03.2017 00:22 3,4 C 86 % 1028,3 hPa 0,0 l/m 6,8 km/h (2 Bft) SW 221 0 min 0,000 mm 0,0 UV-I 0 W/m 1,3 C 3,0 C 9,7 km/h (2 Bft) 100,00 %
14.03.2017 00:24 3,4 C 86 % 1028,2 hPa 0,0 l/m 6,3 km/h (2 Bft) SW 220 0 min 0,000 mm 0,0 UV-I 0 W/m 1,3 C 3,4 C 9,7 km/h (2 Bft) 100,00 %
14.03.2017 00:26 3,3 C 86 % 1028,2 hPa 0,0 l/m 8,8 km/h (2 Bft) S-SW 206 0 min 0,000 mm 0,0 UV-I 0 W/m 1,2 C 1,1 C 12,9 km/h (3 Bft) 100,00 %
14.03.2017 00:28 3,4 C 86 % 1028,3 hPa 0,0 l/m 7,3 km/h (2 Bft) SW 214 0 min 0,000 mm 0,0 UV-I 0 W/m 1,3 C 2,6 C 9,7 km/h (2 Bft) 98,11 %
14.03.2017 00:30 3,4 C 86 % 1028,3 hPa 0,0 l/m 7,7 km/h (2 Bft) S-SW 208 0 min 0,000 mm 0,0 UV-I 0 W/m 1,3 C 2,2 C 9,7 km/h (2 Bft) 97,73 %
14.03.2017 00:32 3,5 C 86 % 1028,3 hPa 0,0 l/m 7,4 km/h (2 Bft) S-SW 205 0 min 0,000 mm 0,0 UV-I 0 W/m 1,4 C 2,6 C 9,7 km/h (2 Bft) 98,21 %
14.03.2017 00:34 3,6 C 86 % 1028,3 hPa 0,0 l/m 6,4 km/h (2 Bft) S-SW 211 0 min 0,000 mm 0,0 UV-I 0 W/m 1,5 C 3,6 C 9,7 km/h (2 Bft) 97,37 %
14.03.2017 00:36 3,6 C 86 % 1028,3 hPa 0,0 l/m 7,8 km/h (2 Bft) S-SW 212 0 min 0,000 mm 0,0 UV-I 0 W/m 1,5 C 2,3 C 9,7 km/h (2 Bft) 98,11 %
14.03.2017 00:38 3,6 C 86 % 1028,3 hPa 0,0 l/m 7,1 km/h (2 Bft) S-SW 210 0 min 0,000 mm 0,0 UV-I 0 W/m 1,5 C 3,0 C 11,3 km/h (2 Bft) 97,87 %
14.03.2017 00:40 3,6 C 85 % 1028,4 hPa 0,0 l/m 6,1 km/h (2 Bft) SW 227 0 min 0,000 mm 0,0 UV-I 0 W/m 1,3 C 3,6 C 9,7 km/h (2 Bft) 97,37 %
14.03.2017 00:42 3,7 C 85 % 1028,4 hPa 0,0 l/m 6,2 km/h (2 Bft) S-SW 213 0 min 0,000 mm 0,0 UV-I 0 W/m 1,4 C 3,7 C 8,0 km/h (2 Bft) 96,23 %
14.03.2017 00:44 3,6 C 85 % 1028,5 hPa 0,0 l/m 7,4 km/h (2 Bft) SW 229 0 min 0,000 mm 0,0 UV-I 0 W/m 1,3 C 2,7 C 11,3 km/h (2 Bft) 94,74 %
14.03.2017 00:46 3,7 C 85 % 1028,5 hPa 0,0 l/m 7,4 km/h (2 Bft) W-SW 252 0 min 0,000 mm 0,0 UV-I 0 W/m 1,4 C 2,8 C 12,9 km/h (3 Bft) 98,11 %
14.03.2017 00:48 3,6 C 85 % 1028,6 hPa 0,0 l/m 5,8 km/h (2 Bft) W-SW 238 0 min 0,000 mm 0,0 UV-I 0 W/m 1,3 C 3,6 C 9,7 km/h (2 Bft) 95,45 %
14.03.2017 00:50 3,6 C 85 % 1028,6 hPa 0,0 l/m 7,4 km/h (2 Bft) W-SW 237 0 min 0,000 mm 0,0 UV-I 0 W/m 1,3 C 2,7 C 12,9 km/h (3 Bft) 96,00 %
14.03.2017 00:52 3,6 C 85 % 1028,6 hPa 0,0 l/m 7,5 km/h (2 Bft) SW 236 0 min 0,000 mm 0,0 UV-I 0 W/m 1,3 C 2,6 C 11,3 km/h (2 Bft) 96,23 %
14.03.2017 00:54 3,6 C 85 % 1028,7 hPa 0,0 l/m 11,6 km/h (2 Bft) SW 227 0 min 0,000 mm 0,0 UV-I 0 W/m 1,3 C -0,6 C 16,1 km/h (3 Bft) 95,45 %
14.03.2017 00:56 3,6 C 85 % 1028,7 hPa 0,0 l/m 11,0 km/h (2 Bft) SW 226 0 min 0,000 mm 0,0 UV-I 0 W/m 1,3 C -0,2 C 16,1 km/h (3 Bft) 94,87 %
14.03.2017 00:58 3,6 C 85 % 1028,8 hPa 0,0 l/m 11,9 km/h (2 Bft) SW 229 0 min 0,000 mm 0,0 UV-I 0 W/m 1,3 C -0,8 C 14,5 km/h (3 Bft) 96,55 %
14.03.2017 01:00 3,6 C 85 % 1028,8 hPa 0,0 l/m 10,9 km/h (2 Bft) SW 227 0 min 0,000 mm 0,0 UV-I 0 W/m 1,3 C -0,1 C 14,5 km/h (3 Bft) 92,86 %
14.03.2017 01:02 3,6 C 85 % 1028,8 hPa 0,0 l/m 9,5 km/h (2 Bft) W-SW 237 0 min 0,000 mm 0,0 UV-I 0 W/m 1,3 C 0,9 C 12,9 km/h (3 Bft) 97,73 %
14.03.2017 01:04 3,6 C 85 % 1028,8 hPa 0,0 l/m 9,1 km/h (2 Bft) W-SW 241 0 min 0,000 mm 0,0 UV-I 0 W/m 1,3 C 1,2 C 14,5 km/h (3 Bft) 93,62 %
14.03.2017 01:06 3,6 C 85 % 1028,9 hPa 0,0 l/m 7,7 km/h (2 Bft) W-SW 244 0 min 0,000 mm 0,0 UV-I 0 W/m 1,3 C 2,4 C 14,5 km/h (3 Bft) 98,11 %
14.03.2017 01:08 3,6 C 85 % 1028,9 hPa 0,0 l/m 8,0 km/h (2 Bft) SW 219 0 min 0,000 mm 0,0 UV-I 0 W/m 1,3 C 2,1 C 12,9 km/h (3 Bft) 95,45 %
14.03.2017 01:10 3,6 C 85 % 1029,0 hPa 0,0 l/m 7,8 km/h (2 Bft) W-SW 238 0 min 0,000 mm 0,0 UV-I 0 W/m 1,3 C 2,3 C 11,3 km/h (2 Bft) 97,56 %
14.03.2017 01:12 3,6 C 84 % 1029,0 hPa 0,0 l/m 7,1 km/h (2 Bft) SW 223 0 min 0,000 mm 0,0 UV-I 0 W/m 1,2 C 3,0 C 9,7 km/h (2 Bft) 96,23 %
14.03.2017 01:14 3,6 C 84 % 1029,0 hPa 0,0 l/m 7,9 km/h (2 Bft) SW 227 0 min 0,000 mm 0,0 UV-I 0 W/m 1,2 C 2,2 C 11,3 km/h (2 Bft) 100,00 %
14.03.2017 01:16 3,6 C 84 % 1029,1 hPa 0,0 l/m 7,8 km/h (2 Bft) SW 233 0 min 0,000 mm 0,0 UV-I 0 W/m 1,2 C 2,3 C 11,3 km/h (2 Bft) 98,00 %
14.03.2017 01:18 3,6 C 84 % 1029,1 hPa 0,0 l/m 8,4 km/h (2 Bft) S-SW 212 0 min 0,000 mm 0,0 UV-I 0 W/m 1,2 C 1,8 C 11,3 km/h (2 Bft) 98,00 %
14.03.2017 01:20 3,6 C 84 % 1029,1 hPa 0,0 l/m 8,2 km/h (2 Bft) SW 232 0 min 0,000 mm 0,0 UV-I 0 W/m 1,2 C 2,0 C 12,9 km/h (3 Bft) 96,00 %
14.03.2017 01:22 3,5 C 84 % 1029,1 hPa 0,0 l/m 8,0 km/h (2 Bft) SW 219 0 min 0,000 mm 0,0 UV-I 0 W/m 1,1 C 2,0 C 9,7 km/h (2 Bft) 100,00 %
14.03.2017 01:24 3,5 C 85 % 1029,1 hPa 0,0 l/m 8,2 km/h (2 Bft) SW 224 0 min 0,000 mm 0,0 UV-I 0 W/m 1,2 C 1,9 C 11,3 km/h (2 Bft) 96,00 %
14.03.2017 01:26 3,4 C 84 % 1029,1 hPa 0,0 l/m 7,7 km/h (2 Bft) SW 226 0 min 0,000 mm 0,0 UV-I 0 W/m 1,0 C 2,2 C 11,3 km/h (2 Bft) 95,74 %
14.03.2017 01:28 3,3 C 85 % 1029,1 hPa 0,0 l/m 6,6 km/h (2 Bft) SW 214 0 min 0,000 mm 0,0 UV-I 0 W/m 1,0 C 3,1 C 9,7 km/h (2 Bft) 96,23 %
14.03.2017 01:30 3,3 C 85 % 1029,1 hPa 0,0 l/m 7,4 km/h (2 Bft) SW 226 0 min 0,000 mm 0,0 UV-I 0 W/m 1,0 C 2,4 C 11,3 km/h (2 Bft) 92,68 %
14.03.2017 01:32 3,2 C 85 % 1029,1 hPa 0,0 l/m 7,6 km/h (2 Bft) W-SW 244 0 min 0,000 mm 0,0 UV-I 0 W/m 0,9 C 2,1 C 9,7 km/h (2 Bft) 98,00 %
14.03.2017 01:34 3,2 C 85 % 1029,1 hPa 0,0 l/m 8,4 km/h (2 Bft) SW 236 0 min 0,000 mm 0,0 UV-I 0 W/m 0,9 C 1,4 C 12,9 km/h (3 Bft) 91,49 %
14.03.2017 01:36 3,1 C 85 % 1029,1 hPa 0,0 l/m 8,0 km/h (2 Bft) W-SW 246 0 min 0,000 mm 0,0 UV-I 0 W/m 0,8 C 1,6 C 11,3 km/h (2 Bft) 97,22 %
14.03.2017 01:38 3,1 C 85 % 1029,1 hPa 0,0 l/m 7,6 km/h (2 Bft) SW 225 0 min 0,000 mm 0,0 UV-I 0 W/m 0,8 C 2,0 C 11,3 km/h (2 Bft) 94,00 %
14.03.2017 01:40 3,1 C 85 % 1029,1 hPa 0,0 l/m 7,3 km/h (2 Bft) SW 221 0 min 0,000 mm 0,0 UV-I 0 W/m 0,8 C 2,2 C 11,3 km/h (2 Bft) 94,34 %
14.03.2017 01:42 3,1 C 86 % 1029,1 hPa 0,0 l/m 9,0 km/h (2 Bft) SW 236 0 min 0,000 mm 0,0 UV-I 0 W/m 1,0 C 0,8 C 12,9 km/h (3 Bft) 98,00 %
14.03.2017 01:44 3,0 C 85 % 1029,1 hPa 0,0 l/m 7,9 km/h (2 Bft) SW 231 0 min 0,000 mm 0,0 UV-I 0 W/m 0,7 C 1,6 C 11,3 km/h (2 Bft) 93,18 %
14.03.2017 01:46 3,0 C 86 % 1029,1 hPa 0,0 l/m 7,0 km/h (2 Bft) SW 218 0 min 0,000 mm 0,0 UV-I 0 W/m 0,9 C 2,4 C 9,7 km/h (2 Bft) 97,56 %
14.03.2017 01:48 2,9 C 86 % 1029,1 hPa 0,0 l/m 5,2 km/h (1 Bft) S-SW 208 0 min 0,000 mm 0,0 UV-I 0 W/m 0,8 C 2,9 C 8,0 km/h (2 Bft) 96,00 %
14.03.2017 01:50 3,0 C 86 % 1029,1 hPa 0,0 l/m 4,9 km/h (1 Bft) S-SW 207 0 min 0,000 mm 0,0 UV-I 0 W/m 0,9 C 3,0 C 9,7 km/h (2 Bft) 97,87 %
14.03.2017 01:52 3,0 C 86 % 1029,1 hPa 0,0 l/m 5,5 km/h (1 Bft) SW 220 0 min 0,000 mm 0,0 UV-I 0 W/m 0,9 C 3,0 C 8,0 km/h (2 Bft) 95,74 %
14.03.2017 01:54 3,1 C 86 % 1029,2 hPa 0,0 l/m 5,8 km/h (2 Bft) S-SW 211 0 min 0,000 mm 0,0 UV-I 0 W/m 1,0 C 3,1 C 8,0 km/h (2 Bft) 96,23 %
14.03.2017 01:56 3,1 C 86 % 1029,1 hPa 0,0 l/m 5,7 km/h (1 Bft) S-SW 211 0 min 0,000 mm 0,0 UV-I 0 W/m 1,0 C 3,1 C 8,0 km/h (2 Bft) 97,14 %
14.03.2017 01:58 3,2 C 86 % 1029,1 hPa 0,0 l/m 6,6 km/h (2 Bft) S-SW 204 0 min 0,000 mm 0,0 UV-I 0 W/m 1,1 C 3,0 C 8,0 km/h (2 Bft) 96,43 %
14.03.2017 02:00 3,2 C 86 % 1029,1 hPa 0,0 l/m 7,4 km/h (2 Bft) SW 214 0 min 0,000 mm 0,0 UV-I 0 W/m 1,1 C 2,3 C 9,7 km/h (2 Bft) 98,00 %
14.03.2017 02:02 3,2 C 86 % 1029,1 hPa 0,0 l/m 7,4 km/h (2 Bft) S-SW 202 0 min 0,000 mm 0,0 UV-I 0 W/m 1,1 C 2,3 C 9,7 km/h (2 Bft) 97,56 %
14.03.2017 02:04 3,3 C 85 % 1029,0 hPa 0,0 l/m 7,4 km/h (2 Bft) S-SW 209 0 min 0,000 mm 0,0 UV-I 0 W/m 1,0 C 2,4 C 9,7 km/h (2 Bft) 98,00 %
14.03.2017 02:06 3,3 C 85 % 1028,9 hPa 0,0 l/m 7,2 km/h (2 Bft) S-SW 202 0 min 0,000 mm 0,0 UV-I 0 W/m 1,0 C 2,5 C 11,3 km/h (2 Bft) 97,14 %
14.03.2017 02:08 3,3 C 85 % 1028,9 hPa 0,0 l/m 6,4 km/h (2 Bft) SW 217 0 min 0,000 mm 0,0 UV-I 0 W/m 1,0 C 3,3 C 11,3 km/h (2 Bft) 96,43 %
14.03.2017 02:10 3,3 C 85 % 1028,9 hPa 0,0 l/m 5,9 km/h (2 Bft) S-SW 208 0 min 0,000 mm 0,0 UV-I 0 W/m 1,0 C 3,3 C 9,7 km/h (2 Bft) 95,24 %
14.03.2017 02:12 3,3 C 85 % 1028,9 hPa 0,0 l/m 7,3 km/h (2 Bft) S-SW 201 0 min 0,000 mm 0,0 UV-I 0 W/m 1,0 C 2,5 C 9,7 km/h (2 Bft) 96,36 %
14.03.2017 02:14 3,3 C 85 % 1028,8 hPa 0,0 l/m 5,6 km/h (1 Bft) S-SW 192 0 min 0,000 mm 0,0 UV-I 0 W/m 1,0 C 3,3 C 8,0 km/h (2 Bft) 94,87 %
14.03.2017 02:16 3,3 C 85 % 1028,8 hPa 0,0 l/m 5,4 km/h (1 Bft) S-SW 199 0 min 0,000 mm 0,0 UV-I 0 W/m 1,0 C 3,3 C 6,4 km/h (2 Bft) 96,23 %
14.03.2017 02:18 3,3 C 85 % 1028,8 hPa 0,0 l/m 6,0 km/h (2 Bft) S-SW 207 0 min 0,000 mm 0,0 UV-I 0 W/m 1,0 C 3,3 C 9,7 km/h (2 Bft) 96,00 %
14.03.2017 02:20 3,3 C 86 % 1028,8 hPa 0,0 l/m 7,0 km/h (2 Bft) S-SW 206 0 min 0,000 mm 0,0 UV-I 0 W/m 1,2 C 2,7 C 9,7 km/h (2 Bft) 95,74 %
14.03.2017 02:22 3,3 C 86 % 1028,8 hPa 0,0 l/m 6,8 km/h (2 Bft) S 191 0 min 0,000 mm 0,0 UV-I 0 W/m 1,2 C 2,9 C 8,0 km/h (2 Bft) 97,87 %
14.03.2017 02:24 3,3 C 86 % 1028,7 hPa 0,0 l/m 6,3 km/h (2 Bft) S 184 0 min 0,000 mm 0,0 UV-I 0 W/m 1,2 C 3,3 C 9,7 km/h (2 Bft) 94,74 %
14.03.2017 02:26 3,4 C 86 % 1028,7 hPa 0,0 l/m 6,1 km/h (2 Bft) SW 215 0 min 0,000 mm 0,0 UV-I 0 W/m 1,3 C 3,4 C 9,7 km/h (2 Bft) 98,11 %
14.03.2017 02:28 3,4 C 86 % 1028,7 hPa 0,0 l/m 6,8 km/h (2 Bft) S-SW 206 0 min 0,000 mm 0,0 UV-I 0 W/m 1,3 C 3,0 C 8,0 km/h (2 Bft) 92,68 %
14.03.2017 02:30 3,4 C 85 % 1028,7 hPa 0,0 l/m 7,4 km/h (2 Bft) S-SW 207 0 min 0,000 mm 0,0 UV-I 0 W/m 1,1 C 2,5 C 11,3 km/h (2 Bft) 96,23 %
14.03.2017 02:32 3,5 C 85 % 1028,7 hPa 0,0 l/m 6,5 km/h (2 Bft) S-SW 194 0 min 0,000 mm 0,0 UV-I 0 W/m 1,2 C 3,4 C 11,3 km/h (2 Bft) 97,87 %
14.03.2017 02:34 3,6 C 85 % 1028,7 hPa 0,0 l/m 7,9 km/h (2 Bft) S-SW 213 0 min 0,000 mm 0,0 UV-I 0 W/m 1,3 C 2,2 C 11,3 km/h (2 Bft) 95,74 %
14.03.2017 02:36 3,6 C 85 % 1028,7 hPa 0,0 l/m 7,1 km/h (2 Bft) S-SW 206 0 min 0,000 mm 0,0 UV-I 0 W/m 1,3 C 3,0 C 11,3 km/h (2 Bft) 97,73 %
14.03.2017 02:38 3,6 C 85 % 1028,7 hPa 0,0 l/m 6,9 km/h (2 Bft) S-SW 207 0 min 0,000 mm 0,0 UV-I 0 W/m 1,3 C 3,1 C 9,7 km/h (2 Bft) 95,12 %
14.03.2017 02:40 3,6 C 85 % 1028,7 hPa 0,0 l/m 7,7 km/h (2 Bft) S-SW 209 0 min 0,000 mm 0,0 UV-I 0 W/m 1,3 C 2,4 C 11,3 km/h (2 Bft) 96,23 %
14.03.2017 02:42 3,6 C 85 % 1028,6 hPa 0,0 l/m 8,0 km/h (2 Bft) SW 232 0 min 0,000 mm 0,0 UV-I 0 W/m 1,3 C 2,1 C 12,9 km/h (3 Bft) 100,00 %
14.03.2017 02:44 3,7 C 84 % 1028,7 hPa 0,0 l/m 7,7 km/h (2 Bft) SW 221 0 min 0,000 mm 0,0 UV-I 0 W/m 1,3 C 2,5 C 12,9 km/h (3 Bft) 96,00 %
14.03.2017 02:46 3,7 C 84 % 1028,7 hPa 0,0 l/m 7,8 km/h (2 Bft) SW 227 0 min 0,000 mm 0,0 UV-I 0 W/m 1,3 C 2,4 C 12,9 km/h (3 Bft) 100,00 %
14.03.2017 02:48 3,8 C 84 % 1028,7 hPa 0,0 l/m 6,3 km/h (2 Bft) SW 223 0 min 0,000 mm 0,0 UV-I 0 W/m 1,4 C 3,8 C 8,0 km/h (2 Bft) 98,00 %
14.03.2017 02:50 3,8 C 84 % 1028,7 hPa 0,0 l/m 7,4 km/h (2 Bft) SW 215 0 min 0,000 mm 0,0 UV-I 0 W/m 1,4 C 2,9 C 12,9 km/h (3 Bft) 100,00 %
14.03.2017 02:52 3,8 C 84 % 1028,7 hPa 0,0 l/m 4,6 km/h (1 Bft) SW 214 0 min 0,000 mm 0,0 UV-I 0 W/m 1,4 C 3,8 C 9,7 km/h (2 Bft) 98,00 %
14.03.2017 02:54 3,8 C 83 % 1028,6 hPa 0,0 l/m 5,3 km/h (1 Bft) S-SW 211 0 min 0,000 mm 0,0 UV-I 0 W/m 1,2 C 3,8 C 9,7 km/h (2 Bft) 98,08 %
14.03.2017 02:56 3,8 C 83 % 1028,6 hPa 0,0 l/m 5,8 km/h (2 Bft) W-SW 243 0 min 0,000 mm 0,0 UV-I 0 W/m 1,2 C 3,8 C 8,0 km/h (2 Bft) 100,00 %
14.03.2017 02:58 3,8 C 83 % 1028,6 hPa 0,0 l/m 6,9 km/h (2 Bft) SW 236 0 min 0,000 mm 0,0 UV-I 0 W/m 1,2 C 3,3 C 16,1 km/h (3 Bft) 97,56 %
14.03.2017 03:00 3,8 C 83 % 1028,6 hPa 0,0 l/m 8,1 km/h (2 Bft) W-SW 245 0 min 0,000 mm 0,0 UV-I 0 W/m 1,2 C 2,3 C 16,1 km/h (3 Bft) 96,00 %
14.03.2017 03:02 3,8 C 83 % 1028,6 hPa 0,0 l/m 10,5 km/h (2 Bft) SW 227 0 min 0,000 mm 0,0 UV-I 0 W/m 1,2 C 0,4 C 14,5 km/h (3 Bft) 94,00 %
14.03.2017 03:04 3,8 C 84 % 1028,6 hPa 0,0 l/m 10,5 km/h (2 Bft) SW 217 0 min 0,000 mm 0,0 UV-I 0 W/m 1,4 C 0,4 C 16,1 km/h (3 Bft) 95,45 %
14.03.2017 03:06 3,8 C 84 % 1028,6 hPa 0,0 l/m 12,3 km/h (3 Bft) SW 228 0 min 0,000 mm 0,0 UV-I 0 W/m 1,4 C -0,8 C 16,1 km/h (3 Bft) 96,23 %
14.03.2017 03:08 3,8 C 84 % 1028,5 hPa 0,0 l/m 12,6 km/h (3 Bft) S 187 0 min 0,000 mm 0,0 UV-I 0 W/m 1,4 C -1,0 C 19,3 km/h (3 Bft) 95,12 %
14.03.2017 03:10 3,9 C 84 % 1028,5 hPa 0,0 l/m 10,4 km/h (2 Bft) W-SW 242 0 min 0,000 mm 0,0 UV-I 0 W/m 1,4 C 0,6 C 17,7 km/h (3 Bft) 94,34 %
14.03.2017 03:12 3,9 C 84 % 1028,6 hPa 0,0 l/m 11,1 km/h (2 Bft) SW 230 0 min 0,000 mm 0,0 UV-I 0 W/m 1,4 C 0,1 C 17,7 km/h (3 Bft) 90,24 %
14.03.2017 03:14 4,0 C 84 % 1028,6 hPa 0,0 l/m 11,0 km/h (2 Bft) SW 236 0 min 0,000 mm 0,0 UV-I 0 W/m 1,5 C 0,3 C 16,1 km/h (3 Bft) 96,43 %
14.03.2017 03:16 3,9 C 84 % 1028,6 hPa 0,0 l/m 11,2 km/h (2 Bft) W-SW 244 0 min 0,000 mm 0,0 UV-I 0 W/m 1,4 C 0,0 C 16,1 km/h (3 Bft) 95,12 %
14.03.2017 03:18 4,0 C 84 % 1028,6 hPa 0,0 l/m 11,4 km/h (2 Bft) SW 229 0 min 0,000 mm 0,0 UV-I 0 W/m 1,5 C -0,0 C 14,5 km/h (3 Bft) 95,74 %
14.03.2017 03:20 4,0 C 84 % 1028,6 hPa 0,0 l/m 10,1 km/h (2 Bft) W-SW 244 0 min 0,000 mm 0,0 UV-I 0 W/m 1,5 C 0,9 C 12,9 km/h (3 Bft) 95,45 %
14.03.2017 03:22 4,1 C 84 % 1028,7 hPa 0,0 l/m 10,0 km/h (2 Bft) W-SW 237 0 min 0,000 mm 0,0 UV-I 0 W/m 1,6 C 1,1 C 14,5 km/h (3 Bft) 97,73 %
14.03.2017 03:24 4,1 C 84 % 1028,7 hPa 0,0 l/m 9,1 km/h (2 Bft) W-SW 250 0 min 0,000 mm 0,0 UV-I 0 W/m 1,6 C 1,8 C 14,5 km/h (3 Bft) 96,43 %
14.03.2017 03:26 4,1 C 84 % 1028,7 hPa 0,0 l/m 8,5 km/h (2 Bft) SW 223 0 min 0,000 mm 0,0 UV-I 0 W/m 1,6 C 2,2 C 11,3 km/h (2 Bft) 97,37 %
14.03.2017 03:28 4,1 C 84 % 1028,8 hPa 0,0 l/m 8,3 km/h (2 Bft) SW 234 0 min 0,000 mm 0,0 UV-I 0 W/m 1,6 C 2,4 C 12,9 km/h (3 Bft) 94,00 %
14.03.2017 03:30 4,1 C 83 % 1028,7 hPa 0,0 l/m 7,7 km/h (2 Bft) S-SW 211 0 min 0,000 mm 0,0 UV-I 0 W/m 1,5 C 2,9 C 11,3 km/h (2 Bft) 94,00 %
14.03.2017 03:32 4,1 C 83 % 1028,7 hPa 0,0 l/m 7,8 km/h (2 Bft) W-SW 238 0 min 0,000 mm 0,0 UV-I 0 W/m 1,5 C 2,8 C 12,9 km/h (3 Bft) 97,44 %
14.03.2017 03:34 4,2 C 83 % 1028,8 hPa 0,0 l/m 6,5 km/h (2 Bft) SW 220 0 min 0,000 mm 0,0 UV-I 0 W/m 1,6 C 4,1 C 11,3 km/h (2 Bft) 96,00 %
14.03.2017 03:36 4,1 C 83 % 1028,7 hPa 0,0 l/m 6,2 km/h (2 Bft) S-SW 205 0 min 0,000 mm 0,0 UV-I 0 W/m 1,5 C 4,1 C 11,3 km/h (2 Bft) 98,18 %
14.03.2017 03:38 4,2 C 83 % 1028,7 hPa 0,0 l/m 7,1 km/h (2 Bft) SW 227 0 min 0,000 mm 0,0 UV-I 0 W/m 1,6 C 3,6 C 11,3 km/h (2 Bft) 97,44 %
14.03.2017 03:40 4,2 C 83 % 1028,8 hPa 0,0 l/m 7,0 km/h (2 Bft) SW 232 0 min 0,000 mm 0,0 UV-I 0 W/m 1,6 C 3,7 C 9,7 km/h (2 Bft) 100,00 %
14.03.2017 03:42 4,1 C 83 % 1028,8 hPa 0,0 l/m 6,7 km/h (2 Bft) SW 231 0 min 0,000 mm 0,0 UV-I 0 W/m 1,5 C 3,8 C 9,7 km/h (2 Bft) 96,08 %
14.03.2017 03:44 4,1 C 83 % 1028,8 hPa 0,0 l/m 6,3 km/h (2 Bft) W 260 0 min 0,000 mm 0,0 UV-I 0 W/m 1,5 C 4,1 C 9,7 km/h (2 Bft) 95,45 %
14.03.2017 03:46 4,1 C 83 % 1028,8 hPa 0,0 l/m 5,9 km/h (2 Bft) W 259 0 min 0,000 mm 0,0 UV-I 0 W/m 1,5 C 4,1 C 8,0 km/h (2 Bft) 100,00 %
14.03.2017 03:48 4,1 C 84 % 1028,9 hPa 0,0 l/m 8,3 km/h (2 Bft) W 259 0 min 0,000 mm 0,0 UV-I 0 W/m 1,6 C 2,4 C 12,9 km/h (3 Bft) 97,37 %
14.03.2017 03:50 4,1 C 84 % 1028,9 hPa 0,0 l/m 7,2 km/h (2 Bft) W-SW 253 0 min 0,000 mm 0,0 UV-I 0 W/m 1,6 C 3,4 C 11,3 km/h (2 Bft) 100,00 %
14.03.2017 03:52 4,1 C 83 % 1028,9 hPa 0,0 l/m 6,8 km/h (2 Bft) W-SW 257 0 min 0,000 mm 0,0 UV-I 0 W/m 1,5 C 3,7 C 12,9 km/h (3 Bft) 97,56 %
14.03.2017 03:54 4,1 C 83 % 1028,8 hPa 0,0 l/m 7,1 km/h (2 Bft) W 262 0 min 0,000 mm 0,0 UV-I 0 W/m 1,5 C 3,5 C 12,9 km/h (3 Bft) 98,11 %
14.03.2017 03:56 4,1 C 83 % 1028,9 hPa 0,0 l/m 8,8 km/h (2 Bft) W 269 0 min 0,000 mm 0,0 UV-I 0 W/m 1,5 C 2,0 C 12,9 km/h (3 Bft) 97,56 %
14.03.2017 03:58 4,2 C 83 % 1028,9 hPa 0,0 l/m 10,7 km/h (2 Bft) W 270 0 min 0,000 mm 0,0 UV-I 0 W/m 1,6 C 0,7 C 16,1 km/h (3 Bft) 100,00 %
14.03.2017 04:00 4,2 C 83 % 1028,9 hPa 0,0 l/m 9,1 km/h (2 Bft) W-SW 258 0 min 0,025 mm 0,0 UV-I 0 W/m 1,6 C 1,9 C 12,9 km/h (3 Bft) 97,37 %
14.03.2017 04:02 4,2 C 83 % 1028,9 hPa 0,0 l/m 9,0 km/h (2 Bft) W 264 0 min 0,000 mm 0,0 UV-I 0 W/m 1,6 C 1,9 C 12,9 km/h (3 Bft) 96,43 %
14.03.2017 04:04 4,2 C 83 % 1028,8 hPa 0,0 l/m 7,9 km/h (2 Bft) W-SW 255 0 min 0,000 mm 0,0 UV-I 0 W/m 1,6 C 2,8 C 12,9 km/h (3 Bft) 97,87 %
14.03.2017 04:06 4,2 C 83 % 1028,9 hPa 0,0 l/m 6,0 km/h (2 Bft) W-SW 246 0 min 0,000 mm 0,0 UV-I 0 W/m 1,6 C 4,2 C 8,0 km/h (2 Bft) 95,74 %
14.03.2017 04:08 4,2 C 83 % 1028,9 hPa 0,0 l/m 5,1 km/h (1 Bft) W 259 0 min 0,000 mm 0,0 UV-I 0 W/m 1,6 C 4,2 C 6,4 km/h (2 Bft) 100,00 %
14.03.2017 04:10 4,2 C 83 % 1028,9 hPa 0,0 l/m 5,2 km/h (1 Bft) W 265 0 min 0,000 mm 0,0 UV-I 0 W/m 1,6 C 4,2 C 6,4 km/h (2 Bft) 98,00 %
14.03.2017 04:12 4,2 C 83 % 1028,9 hPa 0,0 l/m 3,0 km/h (1 Bft) W 265 0 min 0,000 mm 0,0 UV-I 0 W/m 1,6 C 4,2 C 4,8 km/h (1 Bft) 100,00 %
14.03.2017 04:14 4,2 C 83 % 1028,9 hPa 0,0 l/m 1,9 km/h (1 Bft) W 265 0 min 0,000 mm 0,0 UV-I 0 W/m 1,6 C 4,2 C 3,2 km/h (1 Bft) 97,44 %
14.03.2017 04:16 4,1 C 83 % 1028,9 hPa 0,0 l/m 1,0 km/h (0 Bft) W 265 0 min 0,000 mm 0,0 UV-I 0 W/m 1,5 C 4,1 C 1,6 km/h (1 Bft) 98,11 %
14.03.2017 04:18 4,1 C 83 % 1028,9 hPa 0,0 l/m 0,3 km/h (0 Bft) W 265 0 min 0,000 mm 0,0 UV-I 0 W/m 1,5 C 4,1 C 1,6 km/h (1 Bft) 97,87 %
14.03.2017 04:20 3,9 C 83 % 1028,9 hPa 0,0 l/m 0,3 km/h (0 Bft) W 265 0 min 0,000 mm 0,0 UV-I 0 W/m 1,3 C 3,9 C 3,2 km/h (1 Bft) 97,14 %
14.03.2017 04:22 3,8 C 84 % 1028,9 hPa 0,0 l/m 1,9 km/h (1 Bft) W 265 0 min 0,000 mm 0,0 UV-I 0 W/m 1,4 C 3,8 C 3,2 km/h (1 Bft) 100,00 %
14.03.2017 04:24 3,8 C 84 % 1028,9 hPa 0,0 l/m 2,1 km/h (1 Bft) W 265 0 min 0,000 mm 0,0 UV-I 0 W/m 1,4 C 3,8 C 3,2 km/h (1 Bft) 98,11 %
14.03.2017 04:26 3,7 C 84 % 1029,0 hPa 0,0 l/m 1,9 km/h (1 Bft) W 276 0 min 0,000 mm 0,0 UV-I 0 W/m 1,3 C 3,7 C 4,8 km/h (1 Bft) 98,21 %
14.03.2017 04:28 3,6 C 84 % 1029,0 hPa 0,0 l/m 2,0 km/h (1 Bft) W 276 0 min 0,000 mm 0,0 UV-I 0 W/m 1,2 C 3,6 C 3,2 km/h (1 Bft) 95,45 %
14.03.2017 04:30 3,5 C 85 % 1029,1 hPa 0,0 l/m 2,5 km/h (1 Bft) W 276 0 min 0,000 mm 0,0 UV-I 0 W/m 1,2 C 3,5 C 4,8 km/h (1 Bft) 98,00 %
14.03.2017 04:32 3,4 C 85 % 1029,1 hPa 0,0 l/m 2,5 km/h (1 Bft) W 276 0 min 0,000 mm 0,0 UV-I 0 W/m 1,1 C 3,4 C 3,2 km/h (1 Bft) 100,00 %
14.03.2017 04:34 3,4 C 85 % 1029,2 hPa 0,0 l/m 2,7 km/h (1 Bft) W 276 0 min 0,000 mm 0,0 UV-I 0 W/m 1,1 C 3,4 C 4,8 km/h (1 Bft) 100,00 %
14.03.2017 04:36 3,3 C 85 % 1029,2 hPa 0,0 l/m 3,0 km/h (1 Bft) W 276 0 min 0,000 mm 0,0 UV-I 0 W/m 1,0 C 3,3 C 4,8 km/h (1 Bft) 98,00 %
14.03.2017 04:38 3,3 C 85 % 1029,2 hPa 0,0 l/m 4,2 km/h (1 Bft) W-SW 242 0 min 0,000 mm 0,0 UV-I 0 W/m 1,0 C 3,3 C 6,4 km/h (2 Bft) 100,00 %
14.03.2017 04:40 3,4 C 85 % 1029,0 hPa 0,0 l/m 4,4 km/h (1 Bft) W-SW 242 0 min 0,000 mm 0,0 UV-I 0 W/m 1,1 C 3,4 C 8,0 km/h (2 Bft) 97,73 %
14.03.2017 04:42 3,4 C 85 % 1029,1 hPa 0,0 l/m 4,2 km/h (1 Bft) W-SW 241 0 min 0,000 mm 0,0 UV-I 0 W/m 1,1 C 3,4 C 6,4 km/h (2 Bft) 100,00 %
14.03.2017 04:44 3,4 C 85 % 1029,0 hPa 0,0 l/m 4,3 km/h (1 Bft) SW 229 0 min 0,000 mm 0,0 UV-I 0 W/m 1,1 C 3,4 C 6,4 km/h (2 Bft) 100,00 %
14.03.2017 04:46 3,4 C 85 % 1029,0 hPa 0,0 l/m 4,8 km/h (1 Bft) SW 227 0 min 0,000 mm 0,0 UV-I 0 W/m 1,1 C 3,4 C 6,4 km/h (2 Bft) 100,00 %
14.03.2017 04:48 3,3 C 85 % 1029,0 hPa 0,0 l/m 3,8 km/h (1 Bft) SW 226 0 min 0,000 mm 0,0 UV-I 0 W/m 1,0 C 3,3 C 6,4 km/h (2 Bft) 97,87 %
14.03.2017 04:50 3,3 C 85 % 1028,9 hPa 0,0 l/m 5,0 km/h (1 Bft) SW 217 0 min 0,000 mm 0,0 UV-I 0 W/m 1,0 C 3,3 C 8,0 km/h (2 Bft) 96,23 %
14.03.2017 04:52 3,2 C 85 % 1028,9 hPa 0,0 l/m 4,5 km/h (1 Bft) SW 217 0 min 0,000 mm 0,0 UV-I 0 W/m 0,9 C 3,2 C 6,4 km/h (2 Bft) 97,30 %
14.03.2017 04:54 3,2 C 86 % 1029,0 hPa 0,0 l/m 5,0 km/h (1 Bft) SW 223 0 min 0,000 mm 0,0 UV-I 0 W/m 1,1 C 3,2 C 8,0 km/h (2 Bft) 98,00 %
14.03.2017 04:56 3,3 C 86 % 1029,0 hPa 0,0 l/m 5,4 km/h (1 Bft) W-SW 246 0 min 0,000 mm 0,0 UV-I 0 W/m 1,2 C 3,3 C 8,0 km/h (2 Bft) 98,11 %
14.03.2017 04:58 3,3 C 85 % 1029,0 hPa 0,0 l/m 6,6 km/h (2 Bft) SW 235 0 min 0,000 mm 0,0 UV-I 0 W/m 1,0 C 3,1 C 9,7 km/h (2 Bft) 97,37 %
14.03.2017 05:00 3,3 C 85 % 1029,0 hPa 0,0 l/m 5,7 km/h (1 Bft) SW 223 0 min 0,000 mm 0,0 UV-I 0 W/m 1,0 C 3,3 C 9,7 km/h (2 Bft) 97,87 %
14.03.2017 05:02 3,3 C 85 % 1029,1 hPa 0,0 l/m 5,0 km/h (1 Bft) W 273 0 min 0,000 mm 0,0 UV-I 0 W/m 1,0 C 3,3 C 6,4 km/h (2 Bft) 100,00 %
14.03.2017 05:04 3,3 C 85 % 1029,2 hPa 0,0 l/m 3,5 km/h (1 Bft) W 281 0 min 0,000 mm 0,0 UV-I 0 W/m 1,0 C 3,3 C 4,8 km/h (1 Bft) 97,56 %
14.03.2017 05:06 3,3 C 86 % 1029,2 hPa 0,0 l/m 3,9 km/h (1 Bft) W 266 0 min 0,000 mm 0,0 UV-I 0 W/m 1,2 C 3,3 C 6,4 km/h (2 Bft) 100,00 %
14.03.2017 05:08 3,3 C 86 % 1029,1 hPa 0,0 l/m 5,6 km/h (1 Bft) W-SW 250 0 min 0,000 mm 0,0 UV-I 0 W/m 1,2 C 3,3 C 9,7 km/h (2 Bft) 97,56 %
14.03.2017 05:10 3,3 C 86 % 1029,2 hPa 0,0 l/m 5,6 km/h (1 Bft) W-SW 244 0 min 0,000 mm 0,0 UV-I 0 W/m 1,2 C 3,3 C 9,7 km/h (2 Bft) 98,11 %
14.03.2017 05:12 3,4 C 85 % 1029,2 hPa 0,0 l/m 5,0 km/h (1 Bft) W 262 0 min 0,000 mm 0,0 UV-I 0 W/m 1,1 C 3,4 C 6,4 km/h (2 Bft) 95,45 %
14.03.2017 05:14 3,4 C 85 % 1029,3 hPa 0,0 l/m 6,7 km/h (2 Bft) W-SW 255 0 min 0,000 mm 0,0 UV-I 0 W/m 1,1 C 3,1 C 11,3 km/h (2 Bft) 94,34 %
14.03.2017 05:16 3,5 C 85 % 1029,3 hPa 0,0 l/m 6,8 km/h (2 Bft) W-SW 255 0 min 0,000 mm 0,0 UV-I 0 W/m 1,2 C 3,1 C 9,7 km/h (2 Bft) 95,74 %
14.03.2017 05:18 3,6 C 85 % 1029,3 hPa 0,0 l/m 5,5 km/h (1 Bft) W 259 0 min 0,000 mm 0,0 UV-I 0 W/m 1,3 C 3,6 C 9,7 km/h (2 Bft) 94,74 %
14.03.2017 05:20 3,6 C 85 % 1029,4 hPa 0,0 l/m 5,5 km/h (1 Bft) W-SW 248 0 min 0,000 mm 0,0 UV-I 0 W/m 1,3 C 3,6 C 8,0 km/h (2 Bft) 98,00 %
14.03.2017 05:22 3,6 C 85 % 1029,4 hPa 0,0 l/m 5,8 km/h (2 Bft) W 260 0 min 0,000 mm 0,0 UV-I 0 W/m 1,3 C 3,6 C 9,7 km/h (2 Bft) 95,12 %
14.03.2017 05:24 3,6 C 85 % 1029,4 hPa 0,0 l/m 5,8 km/h (2 Bft) W-SW 249 0 min 0,000 mm 0,0 UV-I 0 W/m 1,3 C 3,6 C 8,0 km/h (2 Bft) 96,23 %
14.03.2017 05:26 3,6 C 85 % 1029,4 hPa 0,0 l/m 4,9 km/h (1 Bft) W-SW 252 0 min 0,000 mm 0,0 UV-I 0 W/m 1,3 C 3,6 C 8,0 km/h (2 Bft) 98,11 %
14.03.2017 05:28 3,6 C 85 % 1029,4 hPa 0,0 l/m 4,8 km/h (1 Bft) W-SW 250 0 min 0,000 mm 0,0 UV-I 0 W/m 1,3 C 3,6 C 8,0 km/h (2 Bft) 94,74 %
14.03.2017 05:30 3,6 C 85 % 1029,4 hPa 0,0 l/m 4,8 km/h (1 Bft) SW 232 0 min 0,000 mm 0,0 UV-I 0 W/m 1,3 C 3,6 C 6,4 km/h (2 Bft) 96,00 %
14.03.2017 05:32 3,6 C 85 % 1029,4 hPa 0,0 l/m 4,0 km/h (1 Bft) SW 233 0 min 0,000 mm 0,0 UV-I 0 W/m 1,3 C 3,6 C 6,4 km/h (2 Bft) 96,00 %
14.03.2017 05:34 3,6 C 85 % 1029,5 hPa 0,0 l/m 5,2 km/h (1 Bft) W-SW 250 0 min 0,000 mm 0,0 UV-I 0 W/m 1,3 C 3,6 C 6,4 km/h (2 Bft) 98,00 %
14.03.2017 05:36 3,6 C 85 % 1029,4 hPa 0,0 l/m 6,0 km/h (2 Bft) W-SW 250 0 min 0,000 mm 0,0 UV-I 0 W/m 1,3 C 3,6 C 9,7 km/h (2 Bft) 97,62 %
14.03.2017 05:38 3,6 C 85 % 1029,5 hPa 0,0 l/m 5,0 km/h (1 Bft) W-SW 242 0 min 0,000 mm 0,0 UV-I 0 W/m 1,3 C 3,6 C 6,4 km/h (2 Bft) 96,15 %
14.03.2017 05:40 3,6 C 85 % 1029,4 hPa 0,0 l/m 4,1 km/h (1 Bft) W-SW 248 0 min 0,000 mm 0,0 UV-I 0 W/m 1,3 C 3,6 C 6,4 km/h (2 Bft) 98,46 %
14.03.2017 05:43 3,6 C 85 % 1029,4 hPa 0,0 l/m 4,2 km/h (1 Bft) SW 221 0 min 0,000 mm 0,0 UV-I 0 W/m 1,3 C 3,6 C 6,4 km/h (2 Bft) 95,89 %
14.03.2017 05:44 3,6 C 85 % 1029,4 hPa 0,0 l/m 5,3 km/h (1 Bft) SW 221 0 min 0,000 mm 0,0 UV-I 0 W/m 1,3 C 3,6 C 6,4 km/h (2 Bft) 100,00 %
14.03.2017 05:46 3,6 C 85 % 1029,4 hPa 0,0 l/m 3,1 km/h (1 Bft) SW 221 0 min 0,000 mm 0,0 UV-I 0 W/m 1,3 C 3,6 C 4,8 km/h (1 Bft) 92,31 %
14.03.2017 05:48 3,6 C 85 % 1029,4 hPa 0,0 l/m 4,8 km/h (1 Bft) SW 221 0 min 0,000 mm 0,0 UV-I 0 W/m 1,3 C 3,6 C 8,0 km/h (2 Bft) 98,46 %
14.03.2017 05:50 3,5 C 85 % 1029,5 hPa 0,0 l/m 4,8 km/h (1 Bft) SW 236 0 min 0,000 mm 0,0 UV-I 0 W/m 1,2 C 3,5 C 6,4 km/h (2 Bft) 98,00 %
14.03.2017 05:52 3,5 C 85 % 1029,5 hPa 0,0 l/m 4,8 km/h (1 Bft) SW 232 0 min 0,000 mm 0,0 UV-I 0 W/m 1,2 C 3,5 C 6,4 km/h (2 Bft) 100,00 %
14.03.2017 05:54 3,4 C 85 % 1029,5 hPa 0,0 l/m 5,0 km/h (1 Bft) SW 230 0 min 0,000 mm 0,0 UV-I 0 W/m 1,1 C 3,4 C 6,4 km/h (2 Bft) 97,87 %
14.03.2017 05:56 3,4 C 85 % 1029,5 hPa 0,0 l/m 4,1 km/h (1 Bft) SW 233 0 min 0,000 mm 0,0 UV-I 0 W/m 1,1 C 3,4 C 6,4 km/h (2 Bft) 92,11 %
14.03.2017 05:58 3,4 C 86 % 1029,5 hPa 0,0 l/m 3,6 km/h (1 Bft) SW 233 0 min 0,000 mm 0,0 UV-I 0 W/m 1,3 C 3,4 C 4,8 km/h (1 Bft) 97,37 %
14.03.2017 06:00 3,4 C 86 % 1029,5 hPa 0,0 l/m 3,3 km/h (1 Bft) SW 233 0 min 0,000 mm 0,0 UV-I 0 W/m 1,3 C 3,4 C 4,8 km/h (1 Bft) 94,34 %
14.03.2017 06:02 3,4 C 86 % 1029,5 hPa 0,0 l/m 4,7 km/h (1 Bft) SW 225 0 min 0,000 mm 0,0 UV-I 0 W/m 1,3 C 3,4 C 6,4 km/h (2 Bft) 96,30 %
14.03.2017 06:04 3,4 C 86 % 1029,5 hPa 0,0 l/m 4,0 km/h (1 Bft) SW 225 0 min 0,000 mm 0,0 UV-I 0 W/m 1,3 C 3,4 C 6,4 km/h (2 Bft) 95,74 %
14.03.2017 06:06 3,3 C 85 % 1029,5 hPa 0,0 l/m 4,9 km/h (1 Bft) SW 229 0 min 0,000 mm 0,0 UV-I 0 W/m 1,0 C 3,3 C 8,0 km/h (2 Bft) 94,87 %
14.03.2017 06:08 3,3 C 85 % 1029,5 hPa 0,0 l/m 4,6 km/h (1 Bft) SW 217 0 min 0,000 mm 0,0 UV-I 0 W/m 1,0 C 3,3 C 8,0 km/h (2 Bft) 96,15 %
14.03.2017 06:10 3,3 C 86 % 1029,5 hPa 0,0 l/m 5,4 km/h (1 Bft) SW 228 0 min 0,000 mm 0,0 UV-I 0 W/m 1,2 C 3,3 C 8,0 km/h (2 Bft) 97,78 %
14.03.2017 06:12 3,2 C 86 % 1029,6 hPa 0,0 l/m 4,9 km/h (1 Bft) SW 225 0 min 0,000 mm 0,0 UV-I 5 W/m 1,1 C 3,2 C 6,4 km/h (2 Bft) 95,74 %
14.03.2017 06:14 3,2 C 86 % 1029,6 hPa 0,0 l/m 4,3 km/h (1 Bft) W-SW 242 0 min 0,000 mm 0,0 UV-I 5 W/m 1,1 C 3,2 C 6,4 km/h (2 Bft) 97,56 %
14.03.2017 06:16 3,2 C 86 % 1029,7 hPa 0,0 l/m 4,8 km/h (1 Bft) W-SW 238 0 min 0,000 mm 0,0 UV-I 5 W/m 1,1 C 3,2 C 6,4 km/h (2 Bft) 93,44 %
14.03.2017 06:18 3,1 C 86 % 1029,7 hPa 0,0 l/m 5,9 km/h (2 Bft) W-SW 247 0 min 0,000 mm 0,0 UV-I 6 W/m 1,0 C 3,1 C 9,7 km/h (2 Bft) 92,86 %
14.03.2017 06:20 3,1 C 86 % 1029,7 hPa 0,0 l/m 5,1 km/h (1 Bft) W-SW 250 0 min 0,000 mm 0,0 UV-I 7 W/m 1,0 C 3,1 C 9,7 km/h (2 Bft) 97,56 %
14.03.2017 06:22 3,1 C 86 % 1029,7 hPa 0,0 l/m 4,8 km/h (1 Bft) W-SW 254 0 min 0,000 mm 0,0 UV-I 7 W/m 1,0 C 3,1 C 6,4 km/h (2 Bft) 96,30 %
14.03.2017 06:24 3,1 C 86 % 1029,8 hPa 0,0 l/m 4,5 km/h (1 Bft) SW 226 0 min 0,000 mm 0,0 UV-I 9 W/m 1,0 C 3,1 C 6,4 km/h (2 Bft) 92,68 %
14.03.2017 06:26 3,1 C 86 % 1029,8 hPa 0,0 l/m 5,9 km/h (2 Bft) SW 229 0 min 0,000 mm 0,0 UV-I 9 W/m 1,0 C 3,1 C 8,0 km/h (2 Bft) 92,00 %
14.03.2017 06:28 3,0 C 86 % 1029,8 hPa 0,0 l/m 5,7 km/h (1 Bft) W-SW 241 0 min 0,000 mm 0,0 UV-I 11 W/m 0,9 C 3,0 C 8,0 km/h (2 Bft) 98,00 %
14.03.2017 06:30 2,9 C 86 % 1029,8 hPa 0,0 l/m 6,4 km/h (2 Bft) SW 235 2 min 0,000 mm 0,0 UV-I 11 W/m 0,8 C 2,9 C 8,0 km/h (2 Bft) 96,00 %
14.03.2017 06:32 2,9 C 86 % 1029,9 hPa 0,0 l/m 7,3 km/h (2 Bft) W-SW 258 0 min 0,000 mm 0,0 UV-I 12 W/m 0,8 C 2,0 C 11,3 km/h (2 Bft) 92,68 %
14.03.2017 06:34 3,0 C 86 % 1030,0 hPa 0,0 l/m 6,5 km/h (2 Bft) W-SW 245 0 min 0,000 mm 0,0 UV-I 12 W/m 0,9 C 2,9 C 11,3 km/h (2 Bft) 96,88 %
14.03.2017 06:36 3,0 C 86 % 1030,0 hPa 0,0 l/m 5,7 km/h (1 Bft) W-SW 255 0 min 0,000 mm 0,0 UV-I 13 W/m 0,9 C 3,0 C 8,0 km/h (2 Bft) 96,43 %
14.03.2017 06:38 3,0 C 86 % 1030,0 hPa 0,0 l/m 5,6 km/h (1 Bft) SW 234 0 min 0,000 mm 0,0 UV-I 14 W/m 0,9 C 3,0 C 11,3 km/h (2 Bft) 96,23 %
14.03.2017 06:40 2,9 C 86 % 1030,0 hPa 0,0 l/m 5,7 km/h (1 Bft) SW 219 0 min 0,000 mm 0,0 UV-I 14 W/m 0,8 C 2,9 C 6,4 km/h (2 Bft) 95,45 %
14.03.2017 06:42 2,8 C 86 % 1029,9 hPa 0,0 l/m 6,1 km/h (2 Bft) SW 224 0 min 0,000 mm 0,0 UV-I 16 W/m 0,7 C 2,8 C 8,0 km/h (2 Bft) 92,00 %
14.03.2017 06:44 2,8 C 86 % 1029,9 hPa 0,0 l/m 5,3 km/h (1 Bft) S-SW 206 0 min 0,000 mm 0,0 UV-I 17 W/m 0,7 C 2,8 C 6,4 km/h (2 Bft) 98,00 %
14.03.2017 06:46 2,9 C 86 % 1029,9 hPa 0,0 l/m 6,9 km/h (2 Bft) SW 214 0 min 0,000 mm 0,0 UV-I 18 W/m 0,8 C 2,4 C 8,0 km/h (2 Bft) 97,37 %
14.03.2017 06:48 2,9 C 86 % 1029,9 hPa 0,0 l/m 6,9 km/h (2 Bft) S 182 0 min 0,000 mm 0,0 UV-I 20 W/m 0,8 C 2,4 C 9,7 km/h (2 Bft) 98,00 %
14.03.2017 06:50 2,9 C 86 % 1029,9 hPa 0,0 l/m 7,6 km/h (2 Bft) S-SW 213 0 min 0,000 mm 0,0 UV-I 24 W/m 0,8 C 1,8 C 9,7 km/h (2 Bft) 97,83 %
14.03.2017 06:52 3,0 C 86 % 1029,8 hPa 0,0 l/m 8,9 km/h (2 Bft) S-SW 200 0 min 0,000 mm 0,0 UV-I 27 W/m 0,9 C 0,7 C 11,3 km/h (2 Bft) 94,00 %
14.03.2017 06:54 3,1 C 86 % 1029,9 hPa 0,0 l/m 6,5 km/h (2 Bft) W-SW 246 0 min 0,000 mm 0,0 UV-I 32 W/m 1,0 C 3,0 C 11,3 km/h (2 Bft) 92,31 %
14.03.2017 06:56 3,1 C 86 % 1029,9 hPa 0,0 l/m 8,8 km/h (2 Bft) SW 234 0 min 0,000 mm 0,0 UV-I 42 W/m 1,0 C 0,9 C 11,3 km/h (2 Bft) 92,31 %
14.03.2017 06:58 3,1 C 85 % 1029,9 hPa 0,0 l/m 10,1 km/h (2 Bft) SW 232 0 min 0,000 mm 0,0 UV-I 47 W/m 0,8 C -0,1 C 16,1 km/h (3 Bft) 92,45 %
14.03.2017 07:00 3,0 C 86 % 1029,9 hPa 0,0 l/m 11,1 km/h (2 Bft) SW 236 0 min 0,026 mm 0,0 UV-I 40 W/m 0,9 C -0,9 C 14,5 km/h (3 Bft) 94,74 %
14.03.2017 07:02 3,0 C 86 % 1029,9 hPa 0,0 l/m 11,6 km/h (2 Bft) SW 236 0 min 0,000 mm 0,0 UV-I 29 W/m 0,9 C -1,3 C 16,1 km/h (3 Bft) 97,56 %
14.03.2017 07:04 3,1 C 85 % 1029,9 hPa 0,0 l/m 10,6 km/h (2 Bft) SW 234 0 min 0,000 mm 0,0 UV-I 25 W/m 0,8 C -0,5 C 14,5 km/h (3 Bft) 91,53 %
14.03.2017 07:06 3,1 C 85 % 1029,9 hPa 0,0 l/m 9,8 km/h (2 Bft) W-SW 237 0 min 0,000 mm 0,0 UV-I 26 W/m 0,8 C 0,1 C 14,5 km/h (3 Bft) 97,37 %
14.03.2017 07:08 3,1 C 85 % 1029,9 hPa 0,0 l/m 8,0 km/h (2 Bft) SW 221 0 min 0,000 mm 0,0 UV-I 26 W/m 0,8 C 1,6 C 11,3 km/h (2 Bft) 94,64 %
14.03.2017 07:10 3,2 C 85 % 1029,9 hPa 0,0 l/m 8,3 km/h (2 Bft) W-SW 249 0 min 0,000 mm 0,0 UV-I 29 W/m 0,9 C 1,5 C 12,9 km/h (3 Bft) 96,00 %
14.03.2017 07:12 3,2 C 85 % 1029,9 hPa 0,0 l/m 8,0 km/h (2 Bft) W-SW 250 0 min 0,000 mm 0,0 UV-I 35 W/m 0,9 C 1,7 C 14,5 km/h (3 Bft) 97,56 %
14.03.2017 07:14 3,3 C 84 % 1030,0 hPa 0,0 l/m 9,5 km/h (2 Bft) SW 231 0 min 0,000 mm 0,0 UV-I 45 W/m 0,9 C 0,6 C 12,9 km/h (3 Bft) 100,00 %
14.03.2017 07:16 3,4 C 84 % 1030,0 hPa 0,0 l/m 9,0 km/h (2 Bft) W-SW 254 2 min 0,000 mm 0,0 UV-I 91 W/m 1,0 C 1,1 C 14,5 km/h (3 Bft) 97,73 %
14.03.2017 07:18 3,6 C 84 % 1030,0 hPa 0,0 l/m 12,1 km/h (2 Bft) W-SW 255 2 min 0,000 mm 0,0 UV-I 105 W/m 1,2 C -0,9 C 17,7 km/h (3 Bft) 97,56 %
14.03.2017 07:20 3,7 C 83 % 1030,0 hPa 0,0 l/m 11,2 km/h (2 Bft) W-SW 244 2 min 0,000 mm 0,0 UV-I 118 W/m 1,1 C -0,2 C 17,7 km/h (3 Bft) 100,00 %
14.03.2017 07:22 3,9 C 83 % 1030,0 hPa 0,0 l/m 11,6 km/h (2 Bft) W-SW 252 2 min 0,000 mm 0,0 UV-I 121 W/m 1,3 C -0,3 C 17,7 km/h (3 Bft) 97,56 %
14.03.2017 07:24 4,1 C 82 % 1030,0 hPa 0,0 l/m 12,3 km/h (3 Bft) W-SW 243 2 min 0,000 mm 0,0 UV-I 131 W/m 1,3 C -0,5 C 19,3 km/h (3 Bft) 94,34 %
14.03.2017 07:26 4,2 C 82 % 1030,1 hPa 0,0 l/m 11,2 km/h (2 Bft) W 269 2 min 0,000 mm 0,0 UV-I 142 W/m 1,4 C 0,4 C 14,5 km/h (3 Bft) 100,00 %
14.03.2017 07:28 4,3 C 81 % 1030,1 hPa 0,0 l/m 12,5 km/h (3 Bft) W-SW 241 2 min 0,000 mm 0,0 UV-I 159 W/m 1,3 C -0,4 C 17,7 km/h (3 Bft) 95,16 %
14.03.2017 07:30 4,4 C 81 % 1030,2 hPa 0,0 l/m 14,8 km/h (3 Bft) W 259 2 min 0,000 mm 0,0 UV-I 176 W/m 1,4 C -1,5 C 19,3 km/h (3 Bft) 93,62 %
14.03.2017 07:32 4,6 C 80 % 1030,2 hPa 0,0 l/m 11,0 km/h (2 Bft) W 266 2 min 0,000 mm 0,0 UV-I 177 W/m 1,5 C 0,9 C 17,7 km/h (3 Bft) 97,73 %
14.03.2017 07:34 4,7 C 80 % 1030,2 hPa 0,0 l/m 10,6 km/h (2 Bft) W-SW 252 2 min 0,000 mm 0,0 UV-I 156 W/m 1,6 C 1,3 C 17,7 km/h (3 Bft) 89,29 %
14.03.2017 07:36 4,8 C 79 % 1030,2 hPa 0,0 l/m 12,8 km/h (3 Bft) SW 232 2 min 0,000 mm 0,0 UV-I 114 W/m 1,5 C 0,0 C 17,7 km/h (3 Bft) 97,37 %
14.03.2017 07:38 4,9 C 79 % 1030,2 hPa 0,0 l/m 12,9 km/h (3 Bft) SW 226 2 min 0,000 mm 0,0 UV-I 154 W/m 1,6 C 0,1 C 17,7 km/h (3 Bft) 98,21 %
14.03.2017 07:40 4,9 C 79 % 1030,1 hPa 0,0 l/m 13,2 km/h (3 Bft) W-SW 252 2 min 0,000 mm 0,0 UV-I 183 W/m 1,6 C -0,1 C 17,7 km/h (3 Bft) 95,45 %
14.03.2017 07:42 5,1 C 78 % 1030,2 hPa 0,0 l/m 12,5 km/h (3 Bft) W-SW 248 2 min 0,000 mm 0,0 UV-I 171 W/m 1,6 C 0,6 C 22,5 km/h (4 Bft) 95,74 %
14.03.2017 07:44 5,1 C 78 % 1030,2 hPa 0,0 l/m 12,0 km/h (2 Bft) SW 232 2 min 0,000 mm 0,0 UV-I 187 W/m 1,6 C 0,9 C 19,3 km/h (3 Bft) 92,45 %
14.03.2017 07:46 5,2 C 78 % 1030,2 hPa 0,0 l/m 11,5 km/h (2 Bft) SW 231 2 min 0,000 mm 0,0 UV-I 193 W/m 1,7 C 1,3 C 17,7 km/h (3 Bft) 94,29 %
14.03.2017 07:48 5,2 C 78 % 1030,2 hPa 0,0 l/m 10,7 km/h (2 Bft) S-SW 212 2 min 0,000 mm 0,0 UV-I 203 W/m 1,7 C 1,8 C 14,5 km/h (3 Bft) 94,64 %
14.03.2017 07:50 5,3 C 78 % 1030,2 hPa 0,0 l/m 12,1 km/h (2 Bft) W-SW 246 2 min 0,000 mm 0,0 UV-I 213 W/m 1,8 C 1,0 C 16,1 km/h (3 Bft) 97,73 %
14.03.2017 07:52 5,4 C 78 % 1030,2 hPa 0,0 l/m 12,4 km/h (3 Bft) S-SW 213 2 min 0,000 mm 0,0 UV-I 228 W/m 1,9 C 1,0 C 16,1 km/h (3 Bft) 95,12 %
14.03.2017 07:54 5,5 C 77 % 1030,2 hPa 0,0 l/m 13,3 km/h (3 Bft) SW 231 2 min 0,000 mm 0,0 UV-I 249 W/m 1,8 C 0,6 C 19,3 km/h (3 Bft) 96,23 %
14.03.2017 07:56 5,6 C 77 % 1030,2 hPa 0,0 l/m 13,9 km/h (3 Bft) W-SW 242 2 min 0,000 mm 0,0 UV-I 277 W/m 1,9 C 0,4 C 19,3 km/h (3 Bft) 97,87 %
14.03.2017 07:58 5,7 C 77 % 1030,2 hPa 0,0 l/m 17,6 km/h (3 Bft) SW 219 2 min 0,000 mm 0,0 UV-I 295 W/m 2,0 C -1,3 C 22,5 km/h (4 Bft) 92,68 %
14.03.2017 08:00 5,8 C 76 % 1030,2 hPa 0,0 l/m 15,6 km/h (3 Bft) W 261 2 min 0,076 mm 0,0 UV-I 252 W/m 1,9 C -0,2 C 24,1 km/h (4 Bft) 98,00 %
14.03.2017 08:02 5,8 C 76 % 1030,3 hPa 0,0 l/m 14,2 km/h (3 Bft) W 279 2 min 0,000 mm 0,0 UV-I 206 W/m 1,9 C 0,5 C 22,5 km/h (4 Bft) 94,34 %
14.03.2017 08:04 5,9 C 76 % 1030,2 hPa 0,0 l/m 15,9 km/h (3 Bft) SW 216 2 min 0,000 mm 0,0 UV-I 272 W/m 2,0 C -0,3 C 20,9 km/h (4 Bft) 97,73 %
14.03.2017 08:06 5,9 C 75 % 1030,2 hPa 0,0 l/m 12,1 km/h (2 Bft) SW 229 2 min 0,000 mm 0,0 UV-I 173 W/m 1,8 C 1,7 C 19,3 km/h (3 Bft) 97,44 %
14.03.2017 08:08 5,9 C 75 % 1030,2 hPa 0,0 l/m 15,8 km/h (3 Bft) W-SW 244 2 min 0,000 mm 0,0 UV-I 207 W/m 1,8 C -0,2 C 20,9 km/h (4 Bft) 94,55 %
14.03.2017 08:10 6,0 C 75 % 1030,2 hPa 0,0 l/m 15,0 km/h (3 Bft) SW 232 2 min 0,000 mm 0,0 UV-I 261 W/m 1,9 C 0,3 C 22,5 km/h (4 Bft) 91,67 %
14.03.2017 08:12 6,1 C 75 % 1030,2 hPa 0,0 l/m 12,5 km/h (3 Bft) W-SW 251 2 min 0,000 mm 0,0 UV-I 247 W/m 2,0 C 1,7 C 17,7 km/h (3 Bft) 98,36 %
14.03.2017 08:14 6,2 C 75 % 1030,2 hPa 0,0 l/m 14,8 km/h (3 Bft) W-SW 252 0 min 0,000 mm 0,0 UV-I 156 W/m 2,1 C 0,6 C 22,5 km/h (4 Bft) 97,62 %
14.03.2017 08:16 6,2 C 75 % 1030,3 hPa 0,0 l/m 13,1 km/h (3 Bft) W 262 0 min 0,000 mm 0,0 UV-I 135 W/m 2,1 C 1,5 C 19,3 km/h (3 Bft) 93,62 %
14.03.2017 08:18 6,2 C 75 % 1030,3 hPa 0,0 l/m 13,2 km/h (3 Bft) W-SW 238 0 min 0,000 mm 0,0 UV-I 132 W/m 2,1 C 1,5 C 17,7 km/h (3 Bft) 100,00 %
14.03.2017 08:20 6,2 C 75 % 1030,4 hPa 0,0 l/m 12,3 km/h (3 Bft) SW 236 2 min 0,000 mm 0,0 UV-I 200 W/m 2,1 C 2,0 C 16,1 km/h (3 Bft) 96,23 %
14.03.2017 08:22 6,2 C 75 % 1030,3 hPa 0,0 l/m 12,4 km/h (3 Bft) W-SW 257 0 min 0,000 mm 0,0 UV-I 154 W/m 2,1 C 1,9 C 19,3 km/h (3 Bft) 97,56 %
14.03.2017 08:24 6,2 C 74 % 1030,4 hPa 0,0 l/m 18,6 km/h (3 Bft) SW 232 0 min 0,000 mm 0,2 UV-I 132 W/m 1,9 C -1,1 C 24,1 km/h (4 Bft) 100,00 %
14.03.2017 08:26 6,2 C 74 % 1030,3 hPa 0,0 l/m 15,8 km/h (3 Bft) W 265 2 min 0,000 mm 0,5 UV-I 244 W/m 1,9 C 0,1 C 22,5 km/h (4 Bft) 97,37 %
14.03.2017 08:28 6,3 C 74 % 1030,4 hPa 0,0 l/m 13,9 km/h (3 Bft) W-SW 246 2 min 0,000 mm 0,5 UV-I 276 W/m 2,0 C 1,2 C 17,7 km/h (3 Bft) 100,00 %
14.03.2017 08:30 6,4 C 74 % 1030,4 hPa 0,0 l/m 17,3 km/h (3 Bft) W-SW 254 2 min 0,000 mm 0,5 UV-I 256 W/m 2,1 C -0,3 C 20,9 km/h (4 Bft) 97,87 %
14.03.2017 08:32 6,4 C 74 % 1030,5 hPa 0,0 l/m 16,6 km/h (3 Bft) W 268 2 min 0,000 mm 0,5 UV-I 262 W/m 2,1 C 0,0 C 20,9 km/h (4 Bft) 100,00 %
14.03.2017 08:34 6,6 C 73 % 1030,5 hPa 0,0 l/m 12,9 km/h (3 Bft) W 270 2 min 0,000 mm 0,5 UV-I 311 W/m 2,1 C 2,1 C 24,1 km/h (4 Bft) 94,00 %
14.03.2017 08:36 6,7 C 73 % 1030,6 hPa 0,0 l/m 11,8 km/h (2 Bft) SW 234 2 min 0,000 mm 0,5 UV-I 303 W/m 2,2 C 2,8 C 16,1 km/h (3 Bft) 98,21 %
14.03.2017 08:38 6,8 C 72 % 1030,6 hPa 0,0 l/m 13,9 km/h (3 Bft) W-SW 253 2 min 0,000 mm 0,5 UV-I 245 W/m 2,1 C 1,8 C 20,9 km/h (4 Bft) 100,00 %
14.03.2017 08:40 6,8 C 72 % 1030,6 hPa 0,0 l/m 11,3 km/h (2 Bft) W 262 2 min 0,000 mm 0,6 UV-I 306 W/m 2,1 C 3,2 C 16,1 km/h (3 Bft) 95,74 %
14.03.2017 08:42 6,9 C 72 % 1030,7 hPa 0,0 l/m 13,5 km/h (3 Bft) W-SW 247 2 min 0,000 mm 0,6 UV-I 311 W/m 2,2 C 2,1 C 19,3 km/h (3 Bft) 100,00 %
14.03.2017 08:44 7,0 C 72 % 1030,7 hPa 0,0 l/m 9,2 km/h (2 Bft) W 261 2 min 0,000 mm 0,6 UV-I 333 W/m 2,3 C 4,8 C 14,5 km/h (3 Bft) 97,37 %
14.03.2017 08:46 7,1 C 71 % 1030,7 hPa 0,0 l/m 7,0 km/h (2 Bft) W 263 2 min 0,000 mm 0,6 UV-I 318 W/m 2,2 C 6,6 C 14,5 km/h (3 Bft) 96,23 %
14.03.2017 08:48 7,2 C 70 % 1030,7 hPa 0,0 l/m 13,6 km/h (3 Bft) W 266 2 min 0,000 mm 0,7 UV-I 349 W/m 2,1 C 2,4 C 17,7 km/h (3 Bft) 97,62 %
14.03.2017 08:50 7,3 C 70 % 1030,8 hPa 0,0 l/m 8,7 km/h (2 Bft) W-SW 245 2 min 0,000 mm 0,7 UV-I 389 W/m 2,2 C 5,5 C 14,5 km/h (3 Bft) 95,45 %
14.03.2017 08:52 7,3 C 70 % 1030,8 hPa 0,0 l/m 15,8 km/h (3 Bft) W 280 2 min 0,000 mm 0,7 UV-I 428 W/m 2,2 C 1,5 C 22,5 km/h (4 Bft) 100,00 %
14.03.2017 08:54 7,4 C 69 % 1030,8 hPa 0,0 l/m 14,3 km/h (3 Bft) W-SW 257 2 min 0,000 mm 0,8 UV-I 431 W/m 2,1 C 2,3 C 20,9 km/h (4 Bft) 97,14 %
14.03.2017 08:56 7,4 C 69 % 1030,9 hPa 0,0 l/m 13,8 km/h (3 Bft) W 261 2 min 0,000 mm 0,7 UV-I 370 W/m 2,1 C 2,6 C 20,9 km/h (4 Bft) 96,77 %
14.03.2017 08:58 7,5 C 69 % 1030,9 hPa 0,0 l/m 13,4 km/h (3 Bft) W-SW 255 2 min 0,000 mm 0,7 UV-I 320 W/m 2,2 C 2,9 C 19,3 km/h (3 Bft) 95,12 %
14.03.2017 09:00 7,6 C 70 % 1030,9 hPa 0,0 l/m 8,6 km/h (2 Bft) W 271 0 min 0,152 mm 0,7 UV-I 223 W/m 2,5 C 5,9 C 12,9 km/h (3 Bft) 95,12 %
14.03.2017 09:02 7,6 C 69 % 1030,9 hPa 0,0 l/m 11,2 km/h (2 Bft) W 265 2 min 0,000 mm 0,8 UV-I 295 W/m 2,3 C 4,2 C 16,1 km/h (3 Bft) 100,00 %
14.03.2017 09:04 7,6 C 68 % 1031,0 hPa 0,0 l/m 9,4 km/h (2 Bft) SW 217 2 min 0,000 mm 0,7 UV-I 319 W/m 2,1 C 5,3 C 16,1 km/h (3 Bft) 100,00 %
14.03.2017 09:06 7,6 C 68 % 1031,0 hPa 0,0 l/m 9,1 km/h (2 Bft) W-SW 255 0 min 0,000 mm 0,8 UV-I 204 W/m 2,1 C 5,5 C 14,5 km/h (3 Bft) 98,00 %
14.03.2017 09:08 7,8 C 68 % 1031,0 hPa 0,0 l/m 11,4 km/h (2 Bft) SW 233 2 min 0,000 mm 0,9 UV-I 444 W/m 2,3 C 4,3 C 17,7 km/h (3 Bft) 100,00 %
14.03.2017 09:10 7,9 C 67 % 1031,0 hPa 0,0 l/m 6,9 km/h (2 Bft) W-SW 254 2 min 0,000 mm 0,9 UV-I 472 W/m 2,2 C 7,5 C 11,3 km/h (2 Bft) 97,87 %
14.03.2017 09:12 8,1 C 67 % 1031,1 hPa 0,0 l/m 7,3 km/h (2 Bft) W-SW 246 2 min 0,000 mm 0,9 UV-I 463 W/m 2,3 C 7,4 C 12,9 km/h (3 Bft) 100,00 %
14.03.2017 09:14 8,2 C 66 % 1031,0 hPa 0,0 l/m 5,0 km/h (1 Bft) W-SW 243 2 min 0,000 mm 0,8 UV-I 267 W/m 2,2 C 8,2 C 9,7 km/h (2 Bft) 96,23 %
14.03.2017 09:16 8,2 C 66 % 1031,1 hPa 0,0 l/m 11,1 km/h (2 Bft) W-SW 253 2 min 0,000 mm 0,8 UV-I 288 W/m 2,2 C 4,9 C 19,3 km/h (3 Bft) 100,00 %
14.03.2017 09:18 8,1 C 67 % 1031,2 hPa 0,0 l/m 7,3 km/h (2 Bft) W-SW 247 2 min 0,000 mm 0,7 UV-I 257 W/m 2,3 C 7,4 C 12,9 km/h (3 Bft) 97,56 %
14.03.2017 09:20 8,1 C 67 % 1031,2 hPa 0,0 l/m 8,9 km/h (2 Bft) W-SW 244 0 min 0,000 mm 0,7 UV-I 226 W/m 2,3 C 6,2 C 19,3 km/h (3 Bft) 98,11 %
14.03.2017 09:22 7,9 C 66 % 1031,2 hPa 0,0 l/m 12,4 km/h (3 Bft) W 261 0 min 0,000 mm 0,7 UV-I 217 W/m 1,9 C 3,9 C 19,3 km/h (3 Bft) 92,68 %
14.03.2017 09:24 7,8 C 65 % 1031,2 hPa 0,0 l/m 12,7 km/h (3 Bft) W 281 0 min 0,000 mm 0,8 UV-I 226 W/m 1,6 C 3,6 C 19,3 km/h (3 Bft) 98,00 %
14.03.2017 09:26 7,8 C 67 % 1031,2 hPa 0,0 l/m 9,8 km/h (2 Bft) W-SW 257 2 min 0,000 mm 0,9 UV-I 308 W/m 2,1 C 5,3 C 16,1 km/h (3 Bft) 95,56 %
14.03.2017 09:28 7,9 C 67 % 1031,2 hPa 0,0 l/m 6,1 km/h (2 Bft) W 275 2 min 0,000 mm 0,9 UV-I 417 W/m 2,2 C 7,9 C 9,7 km/h (2 Bft) 95,92 %
14.03.2017 09:30 8,1 C 67 % 1031,2 hPa 0,0 l/m 8,2 km/h (2 Bft) W-SW 242 2 min 0,000 mm 0,9 UV-I 345 W/m 2,3 C 6,7 C 17,7 km/h (3 Bft) 94,74 %
14.03.2017 09:32 8,2 C 66 % 1031,3 hPa 0,0 l/m 11,3 km/h (2 Bft) W 274 2 min 0,000 mm 0,8 UV-I 324 W/m 2,2 C 4,8 C 17,7 km/h (3 Bft) 96,23 %
14.03.2017 09:34 8,2 C 63 % 1031,3 hPa 0,0 l/m 16,0 km/h (3 Bft) W-SW 252 2 min 0,000 mm 0,8 UV-I 293 W/m 1,6 C 2,5 C 22,5 km/h (4 Bft) 97,56 %
14.03.2017 09:36 8,1 C 63 % 1031,3 hPa 0,0 l/m 16,7 km/h (3 Bft) W 280 0 min 0,000 mm 0,8 UV-I 232 W/m 1,5 C 2,1 C 22,5 km/h (4 Bft) 95,16 %
14.03.2017 09:38 8,0 C 63 % 1031,2 hPa 0,0 l/m 15,4 km/h (3 Bft) SW 223 0 min 0,000 mm 0,8 UV-I 233 W/m 1,4 C 2,5 C 22,5 km/h (4 Bft) 97,37 %
14.03.2017 09:40 7,9 C 63 % 1031,3 hPa 0,0 l/m 15,7 km/h (3 Bft) W-SW 257 0 min 0,000 mm 0,8 UV-I 225 W/m 1,3 C 2,3 C 22,5 km/h (4 Bft) 96,23 %
14.03.2017 09:42 7,9 C 63 % 1031,3 hPa 0,0 l/m 11,2 km/h (2 Bft) W 262 0 min 0,000 mm 0,8 UV-I 232 W/m 1,3 C 4,5 C 16,1 km/h (3 Bft) 94,00 %
14.03.2017 09:44 7,9 C 63 % 1031,4 hPa 0,0 l/m 12,7 km/h (3 Bft) W 262 0 min 0,000 mm 0,8 UV-I 245 W/m 1,3 C 3,7 C 17,7 km/h (3 Bft) 100,00 %
14.03.2017 09:46 7,9 C 63 % 1031,4 hPa 0,0 l/m 11,9 km/h (2 Bft) W 273 0 min 0,000 mm 0,9 UV-I 255 W/m 1,3 C 4,2 C 16,1 km/h (3 Bft) 96,43 %
14.03.2017 09:48 7,9 C 63 % 1031,3 hPa 0,0 l/m 17,1 km/h (3 Bft) W-SW 242 0 min 0,000 mm 0,9 UV-I 265 W/m 1,3 C 1,7 C 24,1 km/h (4 Bft) 97,73 %
14.03.2017 09:50 7,9 C 63 % 1031,3 hPa 0,0 l/m 13,7 km/h (3 Bft) W-SW 253 0 min 0,000 mm 0,9 UV-I 248 W/m 1,3 C 3,2 C 20,9 km/h (4 Bft) 97,73 %
14.03.2017 09:52 8,0 C 63 % 1031,3 hPa 0,0 l/m 14,6 km/h (3 Bft) W 266 0 min 0,000 mm 0,9 UV-I 244 W/m 1,4 C 2,9 C 25,7 km/h (4 Bft) 97,56 %
14.03.2017 09:54 8,0 C 64 % 1031,4 hPa 0,0 l/m 14,0 km/h (3 Bft) W-SW 240 0 min 0,000 mm 1,0 UV-I 262 W/m 1,6 C 3,2 C 19,3 km/h (3 Bft) 96,00 %
14.03.2017 09:56 8,1 C 64 % 1031,4 hPa 0,0 l/m 13,2 km/h (3 Bft) W 268 2 min 0,000 mm 1,1 UV-I 357 W/m 1,7 C 3,7 C 19,3 km/h (3 Bft) 96,00 %
14.03.2017 09:58 8,2 C 63 % 1031,3 hPa 0,0 l/m 12,7 km/h (3 Bft) W 269 2 min 0,000 mm 1,2 UV-I 352 W/m 1,6 C 4,1 C 16,1 km/h (3 Bft) 100,00 %
14.03.2017 10:00 8,3 C 62 % 1031,3 hPa 0,0 l/m 12,0 km/h (2 Bft) W-SW 246 2 min 0,000 mm 1,2 UV-I 443 W/m 1,5 C 4,6 C 17,7 km/h (3 Bft) 95,12 %
14.03.2017 10:02 8,4 C 63 % 1031,3 hPa 0,0 l/m 5,6 km/h (1 Bft) W-SW 244 2 min 0,178 mm 1,1 UV-I 329 W/m 1,8 C 8,4 C 12,9 km/h (3 Bft) 97,62 %
14.03.2017 10:04 8,5 C 63 % 1031,3 hPa 0,0 l/m 9,1 km/h (2 Bft) W-SW 237 0 min 0,000 mm 1,0 UV-I 281 W/m 1,9 C 6,5 C 16,1 km/h (3 Bft) 100,00 %
14.03.2017 10:06 8,5 C 61 % 1031,4 hPa 0,0 l/m 12,5 km/h (3 Bft) W-SW 250 2 min 0,000 mm 1,1 UV-I 356 W/m 1,4 C 4,5 C 19,3 km/h (3 Bft) 100,00 %
14.03.2017 10:08 8,5 C 62 % 1031,3 hPa 0,0 l/m 10,7 km/h (2 Bft) W-SW 242 2 min 0,000 mm 1,1 UV-I 318 W/m 1,6 C 5,5 C 14,5 km/h (3 Bft) 100,00 %
14.03.2017 10:10 8,5 C 62 % 1031,3 hPa 0,0 l/m 8,5 km/h (2 Bft) W 279 2 min 0,000 mm 1,1 UV-I 316 W/m 1,6 C 6,9 C 12,9 km/h (3 Bft) 100,00 %
14.03.2017 10:12 8,6 C 63 % 1031,4 hPa 0,0 l/m 6,4 km/h (2 Bft) W-NW 295 2 min 0,000 mm 1,1 UV-I 392 W/m 2,0 C 8,6 C 11,3 km/h (2 Bft) 97,14 %
14.03.2017 10:14 8,6 C 62 % 1031,4 hPa 0,0 l/m 14,9 km/h (3 Bft) W-NW 286 2 min 0,000 mm 1,1 UV-I 372 W/m 1,7 C 3,5 C 17,7 km/h (3 Bft) 100,00 %
14.03.2017 10:16 8,7 C 62 % 1031,4 hPa 0,0 l/m 7,8 km/h (2 Bft) W-SW 243 2 min 0,000 mm 1,1 UV-I 355 W/m 1,8 C 7,6 C 14,5 km/h (3 Bft) 100,00 %
14.03.2017 10:18 8,7 C 62 % 1031,5 hPa 0,0 l/m 13,2 km/h (3 Bft) W 263 0 min 0,000 mm 0,9 UV-I 241 W/m 1,8 C 4,4 C 17,7 km/h (3 Bft) 94,74 %
14.03.2017 10:20 8,7 C 61 % 1031,4 hPa 0,0 l/m 11,0 km/h (2 Bft) W 267 0 min 0,000 mm 0,7 UV-I 198 W/m 1,6 C 5,6 C 14,5 km/h (3 Bft) 98,00 %
14.03.2017 10:22 8,6 C 62 % 1031,5 hPa 0,0 l/m 11,4 km/h (2 Bft) W-SW 258 0 min 0,000 mm 0,7 UV-I 195 W/m 1,7 C 5,2 C 17,7 km/h (3 Bft) 100,00 %
14.03.2017 10:24 8,6 C 62 % 1031,5 hPa 0,0 l/m 5,7 km/h (1 Bft) W 262 0 min 0,000 mm 0,8 UV-I 227 W/m 1,7 C 8,6 C 11,3 km/h (2 Bft) 97,87 %
14.03.2017 10:26 8,6 C 62 % 1031,4 hPa 0,0 l/m 10,9 km/h (2 Bft) W-SW 246 0 min 0,000 mm 0,8 UV-I 237 W/m 1,7 C 5,5 C 16,1 km/h (3 Bft) 95,74 %
14.03.2017 10:28 8,6 C 62 % 1031,4 hPa 0,0 l/m 13,1 km/h (3 Bft) W 262 0 min 0,000 mm 0,8 UV-I 218 W/m 1,7 C 4,3 C 20,9 km/h (4 Bft) 97,56 %
14.03.2017 10:30 8,6 C 61 % 1031,4 hPa 0,0 l/m 16,3 km/h (3 Bft) SW 236 0 min 0,000 mm 0,8 UV-I 220 W/m 1,5 C 2,9 C 20,9 km/h (4 Bft) 96,00 %
14.03.2017 10:32 8,6 C 60 % 1031,4 hPa 0,0 l/m 14,8 km/h (3 Bft) W 262 0 min 0,000 mm 0,8 UV-I 233 W/m 1,3 C 3,5 C 27,4 km/h (4 Bft) 96,00 %
14.03.2017 10:34 8,6 C 59 % 1031,4 hPa 0,0 l/m 17,5 km/h (3 Bft) W-SW 246 0 min 0,000 mm 0,8 UV-I 215 W/m 1,0 C 2,4 C 32,2 km/h (5 Bft) 95,12 %
14.03.2017 10:36 8,6 C 59 % 1031,5 hPa 0,0 l/m 16,5 km/h (3 Bft) SW 236 0 min 0,000 mm 0,8 UV-I 206 W/m 1,0 C 2,8 C 25,7 km/h (4 Bft) 96,00 %
14.03.2017 10:38 8,6 C 59 % 1031,4 hPa 0,0 l/m 17,0 km/h (3 Bft) W-NW 286 0 min 0,000 mm 0,8 UV-I 207 W/m 1,0 C 2,6 C 27,4 km/h (4 Bft) 94,34 %
14.03.2017 10:40 8,6 C 59 % 1031,3 hPa 0,0 l/m 10,4 km/h (2 Bft) W-SW 240 0 min 0,000 mm 0,9 UV-I 240 W/m 1,0 C 5,8 C 20,9 km/h (4 Bft) 94,29 %
14.03.2017 10:42 8,6 C 58 % 1031,3 hPa 0,0 l/m 13,9 km/h (3 Bft) W 264 0 min 0,000 mm 0,9 UV-I 233 W/m 0,8 C 3,9 C 20,9 km/h (4 Bft) 98,11 %
14.03.2017 10:44 8,7 C 59 % 1031,3 hPa 0,0 l/m 13,9 km/h (3 Bft) W 259 0 min 0,000 mm 1,0 UV-I 236 W/m 1,1 C 4,1 C 20,9 km/h (4 Bft) 93,33 %
14.03.2017 10:46 8,7 C 59 % 1031,4 hPa 0,0 l/m 11,0 km/h (2 Bft) W 276 0 min 0,000 mm 1,1 UV-I 237 W/m 1,1 C 5,6 C 17,7 km/h (3 Bft) 97,14 %
14.03.2017 10:48 8,7 C 59 % 1031,4 hPa 0,0 l/m 13,6 km/h (3 Bft) SW 220 0 min 0,000 mm 1,1 UV-I 241 W/m 1,1 C 4,2 C 20,9 km/h (4 Bft) 92,31 %
14.03.2017 10:50 8,7 C 58 % 1031,4 hPa 0,0 l/m 14,7 km/h (3 Bft) W 259 0 min 0,000 mm 1,2 UV-I 252 W/m 0,9 C 3,7 C 22,5 km/h (4 Bft) 96,00 %
14.03.2017 10:52 8,8 C 59 % 1031,5 hPa 0,0 l/m 13,1 km/h (3 Bft) W 274 0 min 0,000 mm 1,2 UV-I 271 W/m 1,2 C 4,6 C 19,3 km/h (3 Bft) 97,56 %
14.03.2017 10:54 8,8 C 59 % 1031,4 hPa 0,0 l/m 12,5 km/h (3 Bft) W-SW 245 0 min 0,000 mm 1,1 UV-I 263 W/m 1,2 C 4,9 C 20,9 km/h (4 Bft) 98,11 %
14.03.2017 10:56 8,8 C 59 % 1031,4 hPa 0,0 l/m 14,0 km/h (3 Bft) W-NW 292 0 min 0,000 mm 0,9 UV-I 227 W/m 1,2 C 4,1 C 19,3 km/h (3 Bft) 95,12 %
14.03.2017 10:58 8,8 C 58 % 1031,4 hPa 0,0 l/m 12,0 km/h (2 Bft) W-SW 238 0 min 0,000 mm 0,7 UV-I 158 W/m 1,0 C 5,1 C 16,1 km/h (3 Bft) 96,49 %
14.03.2017 11:00 8,8 C 58 % 1031,5 hPa 0,0 l/m 15,6 km/h (3 Bft) W 262 0 min 0,000 mm 0,5 UV-I 121 W/m 1,0 C 3,4 C 20,9 km/h (4 Bft) 100,00 %
14.03.2017 11:02 8,7 C 57 % 1031,4 hPa 0,0 l/m 18,3 km/h (3 Bft) W 263 0 min 0,153 mm 0,5 UV-I 106 W/m 0,7 C 2,2 C 25,7 km/h (4 Bft) 98,11 %
14.03.2017 11:04 8,7 C 57 % 1031,4 hPa 0,0 l/m 20,2 km/h (4 Bft) W 261 0 min 0,000 mm 0,5 UV-I 102 W/m 0,7 C 1,5 C 29,0 km/h (5 Bft) 94,64 %
14.03.2017 11:06 8,6 C 57 % 1031,5 hPa 0,0 l/m 13,4 km/h (3 Bft) W-SW 248 0 min 0,000 mm 0,5 UV-I 112 W/m 0,6 C 4,2 C 19,3 km/h (3 Bft) 95,45 %
14.03.2017 11:08 8,6 C 57 % 1031,5 hPa 0,0 l/m 14,5 km/h (3 Bft) W-SW 254 0 min 0,000 mm 0,5 UV-I 124 W/m 0,6 C 3,7 C 20,9 km/h (4 Bft) 91,43 %
14.03.2017 11:10 8,6 C 57 % 1031,5 hPa 0,0 l/m 15,6 km/h (3 Bft) W 260 0 min 0,000 mm 0,5 UV-I 124 W/m 0,6 C 3,2 C 22,5 km/h (4 Bft) 96,61 %
14.03.2017 11:12 8,6 C 57 % 1031,5 hPa 0,0 l/m 13,1 km/h (3 Bft) W-SW 243 0 min 0,000 mm 0,6 UV-I 131 W/m 0,6 C 4,3 C 16,1 km/h (3 Bft) 93,62 %
14.03.2017 11:14 8,6 C 58 % 1031,5 hPa 0,0 l/m 14,1 km/h (3 Bft) W 273 0 min 0,000 mm 0,6 UV-I 141 W/m 0,8 C 3,8 C 19,3 km/h (3 Bft) 95,12 %
14.03.2017 11:16 8,6 C 58 % 1031,5 hPa 0,0 l/m 11,8 km/h (2 Bft) W 272 0 min 0,000 mm 0,6 UV-I 137 W/m 0,8 C 5,0 C 17,7 km/h (3 Bft) 94,00 %
14.03.2017 11:18 8,6 C 57 % 1031,4 hPa 0,0 l/m 13,3 km/h (3 Bft) W-NW 302 0 min 0,000 mm 0,6 UV-I 136 W/m 0,6 C 4,2 C 19,3 km/h (3 Bft) 94,74 %
14.03.2017 11:20 8,6 C 57 % 1031,4 hPa 0,0 l/m 16,2 km/h (3 Bft) W-SW 248 0 min 0,000 mm 0,6 UV-I 135 W/m 0,6 C 2,9 C 25,7 km/h (4 Bft) 94,34 %
14.03.2017 11:22 8,6 C 57 % 1031,4 hPa 0,0 l/m 13,3 km/h (3 Bft) SW 234 0 min 0,000 mm 0,6 UV-I 140 W/m 0,6 C 4,2 C 17,7 km/h (3 Bft) 93,18 %
14.03.2017 11:24 8,6 C 57 % 1031,4 hPa 0,0 l/m 14,8 km/h (3 Bft) W 266 0 min 0,000 mm 0,6 UV-I 145 W/m 0,6 C 3,5 C 25,7 km/h (4 Bft) 94,64 %
14.03.2017 11:26 8,6 C 56 % 1031,4 hPa 0,0 l/m 14,4 km/h (3 Bft) W-NW 289 0 min 0,000 mm 0,6 UV-I 142 W/m 0,3 C 3,7 C 22,5 km/h (4 Bft) 92,86 %
14.03.2017 11:28 8,6 C 57 % 1031,4 hPa 0,0 l/m 11,5 km/h (2 Bft) W-SW 253 0 min 0,000 mm 0,6 UV-I 135 W/m 0,6 C 5,2 C 19,3 km/h (3 Bft) 92,68 %
14.03.2017 11:30 8,6 C 57 % 1031,4 hPa 0,0 l/m 14,1 km/h (3 Bft) W 261 0 min 0,000 mm 0,6 UV-I 139 W/m 0,6 C 3,8 C 19,3 km/h (3 Bft) 93,62 %
14.03.2017 11:32 8,6 C 58 % 1031,4 hPa 0,0 l/m 9,6 km/h (2 Bft) W 265 0 min 0,000 mm 0,6 UV-I 142 W/m 0,8 C 6,3 C 19,3 km/h (3 Bft) 94,34 %
14.03.2017 11:34 8,6 C 58 % 1031,4 hPa 0,0 l/m 12,2 km/h (2 Bft) W-SW 241 0 min 0,000 mm 0,7 UV-I 146 W/m 0,8 C 4,8 C 16,1 km/h (3 Bft) 95,45 %
14.03.2017 11:36 8,6 C 58 % 1031,4 hPa 0,0 l/m 11,2 km/h (2 Bft) W 266 0 min 0,000 mm 0,7 UV-I 146 W/m 0,8 C 5,3 C 17,7 km/h (3 Bft) 92,00 %
14.03.2017 11:38 8,7 C 58 % 1031,4 hPa 0,0 l/m 7,2 km/h (2 Bft) SW 230 0 min 0,000 mm 0,7 UV-I 148 W/m 0,9 C 8,1 C 14,5 km/h (3 Bft) 97,56 %
14.03.2017 11:40 8,7 C 57 % 1031,3 hPa 0,0 l/m 8,6 km/h (2 Bft) W-SW 254 0 min 0,000 mm 0,7 UV-I 146 W/m 0,7 C 7,1 C 16,1 km/h (3 Bft) 96,00 %
14.03.2017 11:42 8,7 C 57 % 1031,3 hPa 0,0 l/m 9,9 km/h (2 Bft) W-SW 257 0 min 0,000 mm 0,7 UV-I 146 W/m 0,7 C 6,2 C 19,3 km/h (3 Bft) 98,00 %
14.03.2017 11:44 8,8 C 58 % 1031,3 hPa 0,0 l/m 12,6 km/h (3 Bft) W 263 0 min 0,000 mm 0,7 UV-I 153 W/m 1,0 C 4,8 C 16,1 km/h (3 Bft) 100,00 %
14.03.2017 11:46 8,8 C 57 % 1031,3 hPa 0,0 l/m 11,9 km/h (2 Bft) W-SW 252 0 min 0,000 mm 0,7 UV-I 156 W/m 0,8 C 5,2 C 16,1 km/h (3 Bft) 97,73 %
14.03.2017 11:48 8,8 C 58 % 1031,2 hPa 0,0 l/m 12,0 km/h (2 Bft) W-SW 242 0 min 0,000 mm 0,8 UV-I 162 W/m 1,0 C 5,1 C 16,1 km/h (3 Bft) 96,77 %
14.03.2017 11:50 8,8 C 58 % 1031,3 hPa 0,0 l/m 9,9 km/h (2 Bft) W 281 0 min 0,000 mm 0,8 UV-I 165 W/m 1,0 C 6,3 C 19,3 km/h (3 Bft) 93,62 %
14.03.2017 11:52 8,9 C 57 % 1031,2 hPa 0,0 l/m 15,0 km/h (3 Bft) W 271 0 min 0,000 mm 0,8 UV-I 160 W/m 0,9 C 3,8 C 27,4 km/h (4 Bft) 97,87 %
14.03.2017 11:54 8,9 C 58 % 1031,2 hPa 0,0 l/m 13,1 km/h (3 Bft) W-SW 254 0 min 0,000 mm 0,8 UV-I 163 W/m 1,1 C 4,7 C 20,9 km/h (4 Bft) 100,00 %
14.03.2017 11:56 8,9 C 57 % 1031,1 hPa 0,0 l/m 14,8 km/h (3 Bft) W 274 0 min 0,000 mm 0,8 UV-I 167 W/m 0,9 C 3,9 C 20,9 km/h (4 Bft) 100,00 %
14.03.2017 11:58 8,9 C 57 % 1031,1 hPa 0,0 l/m 11,9 km/h (2 Bft) W-SW 244 0 min 0,000 mm 0,8 UV-I 171 W/m 0,9 C 5,3 C 17,7 km/h (3 Bft) 94,34 %
14.03.2017 12:00 9,0 C 57 % 1031,1 hPa 0,0 l/m 12,5 km/h (3 Bft) W 277 0 min 0,127 mm 0,8 UV-I 174 W/m 0,9 C 5,1 C 17,7 km/h (3 Bft) 100,00 %
14.03.2017 12:02 9,0 C 57 % 1031,1 hPa 0,0 l/m 10,5 km/h (2 Bft) W 263 0 min 0,000 mm 0,9 UV-I 192 W/m 0,9 C 6,2 C 16,1 km/h (3 Bft) 97,62 %
14.03.2017 12:04 9,1 C 58 % 1031,1 hPa 0,0 l/m 11,2 km/h (2 Bft) W 265 0 min 0,000 mm 0,9 UV-I 203 W/m 1,3 C 5,9 C 16,1 km/h (3 Bft) 98,08 %
14.03.2017 12:06 9,1 C 57 % 1031,1 hPa 0,0 l/m 13,9 km/h (3 Bft) W-SW 249 0 min 0,000 mm 1,0 UV-I 213 W/m 1,0 C 4,5 C 19,3 km/h (3 Bft) 97,87 %
14.03.2017 12:08 9,1 C 57 % 1031,1 hPa 0,0 l/m 12,5 km/h (3 Bft) W 263 0 min 0,000 mm 1,0 UV-I 227 W/m 1,0 C 5,2 C 20,9 km/h (4 Bft) 92,31 %
14.03.2017 12:10 9,2 C 57 % 1031,0 hPa 0,0 l/m 11,6 km/h (2 Bft) W 267 0 min 0,000 mm 1,0 UV-I 242 W/m 1,1 C 5,8 C 19,3 km/h (3 Bft) 100,00 %
14.03.2017 12:12 9,3 C 57 % 1030,9 hPa 0,0 l/m 12,7 km/h (3 Bft) SW 236 0 min 0,000 mm 0,9 UV-I 219 W/m 1,2 C 5,4 C 30,6 km/h (5 Bft) 92,68 %
14.03.2017 12:14 9,3 C 56 % 1030,9 hPa 0,0 l/m 15,0 km/h (3 Bft) W 275 0 min 0,000 mm 0,9 UV-I 195 W/m 1,0 C 4,3 C 24,1 km/h (4 Bft) 91,07 %
14.03.2017 12:16 9,3 C 57 % 1030,8 hPa 0,0 l/m 14,8 km/h (3 Bft) W-SW 254 0 min 0,000 mm 1,0 UV-I 232 W/m 1,2 C 4,4 C 22,5 km/h (4 Bft) 92,11 %
14.03.2017 12:18 9,4 C 57 % 1030,8 hPa 0,0 l/m 11,9 km/h (2 Bft) W-SW 242 0 min 0,000 mm 1,1 UV-I 258 W/m 1,3 C 5,9 C 17,7 km/h (3 Bft) 98,21 %
14.03.2017 12:20 9,4 C 56 % 1030,7 hPa 0,0 l/m 16,4 km/h (3 Bft) W 261 0 min 0,000 mm 1,2 UV-I 268 W/m 1,1 C 3,8 C 25,7 km/h (4 Bft) 98,00 %
14.03.2017 12:22 9,5 C 55 % 1030,7 hPa 0,0 l/m 15,7 km/h (3 Bft) W 260 0 min 0,000 mm 1,3 UV-I 292 W/m 0,9 C 4,2 C 24,1 km/h (4 Bft) 97,37 %
14.03.2017 12:24 9,5 C 56 % 1030,7 hPa 0,0 l/m 14,2 km/h (3 Bft) W-SW 252 0 min 0,000 mm 1,3 UV-I 302 W/m 1,2 C 4,9 C 17,7 km/h (3 Bft) 96,00 %
14.03.2017 12:26 9,6 C 56 % 1030,7 hPa 0,0 l/m 10,2 km/h (2 Bft) W 259 0 min 0,000 mm 1,2 UV-I 270 W/m 1,3 C 7,0 C 20,9 km/h (4 Bft) 94,00 %
14.03.2017 12:28 9,7 C 56 % 1030,8 hPa 0,0 l/m 13,0 km/h (3 Bft) W 281 0 min 0,000 mm 1,2 UV-I 261 W/m 1,4 C 5,7 C 19,3 km/h (3 Bft) 100,00 %
14.03.2017 12:30 9,7 C 55 % 1030,7 hPa 0,0 l/m 11,8 km/h (2 Bft) W-NW 287 0 min 0,000 mm 1,1 UV-I 252 W/m 1,1 C 6,3 C 17,7 km/h (3 Bft) 97,73 %
14.03.2017 12:32 9,7 C 55 % 1030,6 hPa 0,0 l/m 16,4 km/h (3 Bft) W 259 0 min 0,000 mm 1,3 UV-I 278 W/m 1,1 C 4,2 C 22,5 km/h (4 Bft) 100,00 %
14.03.2017 12:34 9,7 C 54 % 1030,6 hPa 0,0 l/m 13,8 km/h (3 Bft) W 267 0 min 0,000 mm 1,4 UV-I 302 W/m 0,9 C 5,3 C 25,7 km/h (4 Bft) 97,73 %
14.03.2017 12:36 9,8 C 55 % 1030,6 hPa 0,0 l/m 16,0 km/h (3 Bft) W 275 0 min 0,000 mm 1,4 UV-I 300 W/m 1,2 C 4,5 C 27,4 km/h (4 Bft) 98,11 %
14.03.2017 12:38 9,8 C 55 % 1030,6 hPa 0,0 l/m 10,3 km/h (2 Bft) W-SW 256 0 min 0,000 mm 1,3 UV-I 291 W/m 1,2 C 7,2 C 16,1 km/h (3 Bft) 95,45 %
14.03.2017 12:40 9,9 C 54 % 1030,5 hPa 0,0 l/m 15,5 km/h (3 Bft) W-SW 257 0 min 0,000 mm 1,2 UV-I 278 W/m 1,0 C 4,8 C 19,3 km/h (3 Bft) 100,00 %
14.03.2017 12:42 9,9 C 54 % 1030,5 hPa 0,0 l/m 11,7 km/h (2 Bft) W 265 0 min 0,000 mm 1,1 UV-I 256 W/m 1,0 C 6,6 C 20,9 km/h (4 Bft) 100,00 %
14.03.2017 12:44 9,9 C 54 % 1030,5 hPa 0,0 l/m 9,5 km/h (2 Bft) W-NW 285 0 min 0,000 mm 1,1 UV-I 256 W/m 1,0 C 7,8 C 14,5 km/h (3 Bft) 94,83 %
14.03.2017 12:46 9,9 C 54 % 1030,3 hPa 0,0 l/m 14,8 km/h (3 Bft) W-SW 244 0 min 0,000 mm 1,3 UV-I 283 W/m 1,0 C 5,1 C 20,9 km/h (4 Bft) 95,74 %
14.03.2017 12:48 9,9 C 54 % 1030,3 hPa 0,0 l/m 15,0 km/h (3 Bft) SW 236 0 min 0,000 mm 1,4 UV-I 305 W/m 1,0 C 5,0 C 24,1 km/h (4 Bft) 100,00 %
14.03.2017 12:50 9,9 C 53 % 1030,3 hPa 0,0 l/m 15,1 km/h (3 Bft) W-SW 247 0 min 0,000 mm 1,3 UV-I 290 W/m 0,8 C 5,0 C 27,4 km/h (4 Bft) 100,00 %
14.03.2017 12:52 10,0 C 55 % 1030,3 hPa 0,0 l/m 12,5 km/h (3 Bft) W 265 0 min 0,000 mm 1,2 UV-I 256 W/m 1,4 C 6,3 C 19,3 km/h (3 Bft) 97,73 %
14.03.2017 12:54 10,1 C 54 % 1030,3 hPa 0,0 l/m 10,3 km/h (2 Bft) W-SW 258 0 min 0,000 mm 1,2 UV-I 251 W/m 1,2 C 7,5 C 22,5 km/h (4 Bft) 100,00 %
14.03.2017 12:56 10,0 C 53 % 1030,2 hPa 0,0 l/m 14,3 km/h (3 Bft) W 267 0 min 0,000 mm 1,3 UV-I 267 W/m 0,9 C 5,4 C 19,3 km/h (3 Bft) 97,78 %
14.03.2017 12:58 9,9 C 52 % 1030,2 hPa 0,0 l/m 16,2 km/h (3 Bft) SW 215 0 min 0,000 mm 1,2 UV-I 268 W/m 0,5 C 4,5 C 24,1 km/h (4 Bft) 100,00 %
14.03.2017 13:00 10,0 C 54 % 1030,2 hPa 0,0 l/m 13,8 km/h (3 Bft) W 261 0 min 0,177 mm 1,2 UV-I 259 W/m 1,1 C 5,7 C 24,1 km/h (4 Bft) 90,57 %
14.03.2017 13:02 10,0 C 53 % 1030,2 hPa 0,0 l/m 15,9 km/h (3 Bft) W 266 0 min 0,000 mm 1,1 UV-I 252 W/m 0,9 C 4,8 C 25,7 km/h (4 Bft) 97,56 %
14.03.2017 13:04 10,0 C 53 % 1030,1 hPa 0,0 l/m 13,2 km/h (3 Bft) W 273 0 min 0,000 mm 1,2 UV-I 266 W/m 0,9 C 5,9 C 24,1 km/h (4 Bft) 96,23 %
14.03.2017 13:06 10,1 C 53 % 1030,1 hPa 0,0 l/m 13,2 km/h (3 Bft) W-SW 238 0 min 0,000 mm 1,3 UV-I 294 W/m 1,0 C 6,0 C 20,9 km/h (4 Bft) 97,37 %
14.03.2017 13:08 10,1 C 53 % 1030,1 hPa 0,0 l/m 13,5 km/h (3 Bft) SW 234 0 min 0,000 mm 1,3 UV-I 319 W/m 1,0 C 5,9 C 24,1 km/h (4 Bft) 95,74 %
14.03.2017 13:10 10,2 C 54 % 1030,1 hPa 0,0 l/m 9,3 km/h (2 Bft) W 281 2 min 0,000 mm 1,4 UV-I 347 W/m 1,3 C 8,2 C 17,7 km/h (3 Bft) 97,37 %
14.03.2017 13:12 10,3 C 54 % 1030,2 hPa 0,0 l/m 10,7 km/h (2 Bft) W 259 2 min 0,000 mm 1,4 UV-I 351 W/m 1,4 C 7,5 C 17,7 km/h (3 Bft) 96,23 %
14.03.2017 13:14 10,4 C 54 % 1030,1 hPa 0,0 l/m 8,8 km/h (2 Bft) SW 222 0 min 0,000 mm 1,4 UV-I 338 W/m 1,5 C 8,8 C 16,1 km/h (3 Bft) 95,12 %
14.03.2017 13:16 10,4 C 54 % 1030,1 hPa 0,0 l/m 12,5 km/h (3 Bft) W-SW 250 0 min 0,000 mm 1,4 UV-I 323 W/m 1,5 C 6,7 C 17,7 km/h (3 Bft) 98,31 %
14.03.2017 13:18 10,6 C 55 % 1030,1 hPa 0,0 l/m 8,8 km/h (2 Bft) W 273 0 min 0,000 mm 1,3 UV-I 318 W/m 1,9 C 9,0 C 12,9 km/h (3 Bft) 97,56 %
14.03.2017 13:20 10,6 C 53 % 1030,1 hPa 0,0 l/m 12,1 km/h (2 Bft) W 272 0 min 0,000 mm 1,3 UV-I 319 W/m 1,4 C 7,2 C 19,3 km/h (3 Bft) 96,00 %
14.03.2017 13:22 10,6 C 52 % 1030,2 hPa 0,0 l/m 15,1 km/h (3 Bft) W 274 0 min 0,000 mm 1,3 UV-I 306 W/m 1,2 C 5,8 C 27,4 km/h (4 Bft) 98,11 %
14.03.2017 13:24 10,6 C 54 % 1030,2 hPa 0,0 l/m 10,3 km/h (2 Bft) W 259 0 min 0,000 mm 1,3 UV-I 299 W/m 1,7 C 8,1 C 27,4 km/h (4 Bft) 97,73 %
14.03.2017 13:26 10,6 C 52 % 1030,2 hPa 0,0 l/m 17,9 km/h (3 Bft) W-SW 253 0 min 0,000 mm 1,3 UV-I 300 W/m 1,2 C 4,8 C 29,0 km/h (5 Bft) 97,62 %
14.03.2017 13:28 10,5 C 52 % 1030,2 hPa 0,0 l/m 16,7 km/h (3 Bft) W-SW 252 0 min 0,000 mm 1,3 UV-I 296 W/m 1,1 C 5,1 C 25,7 km/h (4 Bft) 90,91 %
14.03.2017 13:30 10,4 C 53 % 1030,1 hPa 0,0 l/m 15,3 km/h (3 Bft) W 273 0 min 0,000 mm 1,3 UV-I 299 W/m 1,2 C 5,5 C 22,5 km/h (4 Bft) 97,87 %
14.03.2017 13:32 10,4 C 54 % 1030,1 hPa 0,0 l/m 14,9 km/h (3 Bft) SW 223 0 min 0,000 mm 1,3 UV-I 303 W/m 1,5 C 5,7 C 20,9 km/h (4 Bft) 96,23 %
14.03.2017 13:34 10,4 C 55 % 1030,1 hPa 0,0 l/m 13,1 km/h (3 Bft) W 259 0 min 0,000 mm 1,3 UV-I 299 W/m 1,8 C 6,4 C 17,7 km/h (3 Bft) 97,87 %
14.03.2017 13:36 10,5 C 54 % 1030,1 hPa 0,0 l/m 11,0 km/h (2 Bft) W 266 0 min 0,000 mm 1,2 UV-I 293 W/m 1,6 C 7,6 C 19,3 km/h (3 Bft) 100,00 %
14.03.2017 13:38 10,5 C 54 % 1030,0 hPa 0,0 l/m 11,6 km/h (2 Bft) W 269 0 min 0,000 mm 1,2 UV-I 291 W/m 1,6 C 7,3 C 17,7 km/h (3 Bft) 91,07 %
14.03.2017 13:40 10,5 C 54 % 1030,1 hPa 0,0 l/m 14,3 km/h (3 Bft) W 261 0 min 0,000 mm 1,2 UV-I 294 W/m 1,6 C 6,0 C 25,7 km/h (4 Bft) 97,56 %
14.03.2017 13:42 10,5 C 53 % 1030,1 hPa 0,0 l/m 15,7 km/h (3 Bft) W 260 0 min 0,000 mm 1,2 UV-I 294 W/m 1,3 C 5,5 C 25,7 km/h (4 Bft) 95,45 %
14.03.2017 13:44 10,5 C 54 % 1030,1 hPa 0,0 l/m 14,3 km/h (3 Bft) W 264 0 min 0,000 mm 1,2 UV-I 298 W/m 1,6 C 6,0 C 20,9 km/h (4 Bft) 98,00 %
14.03.2017 13:46 10,5 C 54 % 1030,1 hPa 0,0 l/m 15,4 km/h (3 Bft) W-SW 258 0 min 0,000 mm 1,3 UV-I 312 W/m 1,6 C 5,6 C 25,7 km/h (4 Bft) 100,00 %
14.03.2017 13:48 10,5 C 53 % 1030,1 hPa 0,0 l/m 18,1 km/h (3 Bft) W-SW 253 2 min 0,000 mm 1,3 UV-I 329 W/m 1,3 C 4,6 C 25,7 km/h (4 Bft) 93,62 %
14.03.2017 13:50 10,5 C 53 % 1030,2 hPa 0,0 l/m 17,0 km/h (3 Bft) W-SW 250 2 min 0,000 mm 1,3 UV-I 343 W/m 1,3 C 5,0 C 29,0 km/h (5 Bft) 97,37 %
14.03.2017 13:52 10,5 C 53 % 1030,2 hPa 0,0 l/m 10,5 km/h (2 Bft) W-SW 245 2 min 0,000 mm 1,3 UV-I 351 W/m 1,3 C 7,9 C 19,3 km/h (3 Bft) 96,43 %
14.03.2017 13:54 10,4 C 53 % 1030,1 hPa 0,0 l/m 18,4 km/h (3 Bft) NW 304 2 min 0,000 mm 1,3 UV-I 336 W/m 1,2 C 4,3 C 29,0 km/h (5 Bft) 94,00 %
14.03.2017 13:56 10,4 C 53 % 1030,1 hPa 0,0 l/m 20,8 km/h (4 Bft) W-SW 251 0 min 0,000 mm 1,2 UV-I 314 W/m 1,2 C 3,6 C 30,6 km/h (5 Bft) 97,37 %
14.03.2017 13:58 10,4 C 52 % 1030,1 hPa 0,0 l/m 19,8 km/h (3 Bft) W 277 0 min 0,000 mm 1,2 UV-I 306 W/m 1,0 C 3,9 C 32,2 km/h (5 Bft) 96,30 %
14.03.2017 14:00 10,4 C 53 % 1030,1 hPa 0,0 l/m 14,7 km/h (3 Bft) W 259 0 min 0,000 mm 1,2 UV-I 311 W/m 1,2 C 5,7 C 19,3 km/h (3 Bft) 100,00 %
14.03.2017 14:02 10,4 C 54 % 1030,1 hPa 0,0 l/m 10,1 km/h (2 Bft) W 277 2 min 0,204 mm 1,2 UV-I 327 W/m 1,5 C 8,0 C 19,3 km/h (3 Bft) 100,00 %
14.03.2017 14:04 10,5 C 54 % 1030,1 hPa 0,0 l/m 13,6 km/h (3 Bft) W 263 2 min 0,000 mm 1,2 UV-I 327 W/m 1,6 C 6,3 C 19,3 km/h (3 Bft) 97,44 %
14.03.2017 14:06 10,6 C 53 % 1030,2 hPa 0,0 l/m 15,5 km/h (3 Bft) W 277 2 min 0,000 mm 1,2 UV-I 323 W/m 1,4 C 5,7 C 25,7 km/h (4 Bft) 100,00 %
14.03.2017 14:08 10,6 C 53 % 1030,2 hPa 0,0 l/m 13,1 km/h (3 Bft) W 279 0 min 0,000 mm 1,1 UV-I 291 W/m 1,4 C 6,7 C 19,3 km/h (3 Bft) 97,56 %
14.03.2017 14:10 10,5 C 54 % 1030,2 hPa 0,0 l/m 16,9 km/h (3 Bft) W 264 0 min 0,000 mm 1,1 UV-I 275 W/m 1,6 C 5,0 C 24,1 km/h (4 Bft) 96,61 %
14.03.2017 14:12 10,5 C 53 % 1030,2 hPa 0,0 l/m 21,7 km/h (4 Bft) W 269 0 min 0,000 mm 1,0 UV-I 261 W/m 1,3 C 3,4 C 27,4 km/h (4 Bft) 97,37 %
14.03.2017 14:14 10,4 C 53 % 1030,2 hPa 0,0 l/m 18,1 km/h (3 Bft) W-SW 246 0 min 0,000 mm 1,0 UV-I 255 W/m 1,2 C 4,4 C 29,0 km/h (5 Bft) 94,00 %
14.03.2017 14:16 10,4 C 54 % 1030,2 hPa 0,0 l/m 17,6 km/h (3 Bft) W 267 0 min 0,000 mm 1,0 UV-I 264 W/m 1,5 C 4,6 C 29,0 km/h (5 Bft) 100,00 %
14.03.2017 14:18 10,3 C 54 % 1030,3 hPa 0,0 l/m 17,5 km/h (3 Bft) NW 313 0 min 0,000 mm 1,0 UV-I 268 W/m 1,4 C 4,5 C 25,7 km/h (4 Bft) 96,43 %
14.03.2017 14:20 10,3 C 54 % 1030,3 hPa 0,0 l/m 14,9 km/h (3 Bft) W-SW 241 0 min 0,000 mm 1,1 UV-I 283 W/m 1,4 C 5,5 C 22,5 km/h (4 Bft) 94,00 %
14.03.2017 14:22 10,3 C 54 % 1030,2 hPa 0,0 l/m 16,5 km/h (3 Bft) SW 225 0 min 0,000 mm 1,1 UV-I 289 W/m 1,4 C 4,9 C 24,1 km/h (4 Bft) 97,56 %
14.03.2017 14:24 10,3 C 54 % 1030,2 hPa 0,0 l/m 18,7 km/h (3 Bft) W 263 0 min 0,000 mm 1,0 UV-I 273 W/m 1,4 C 4,1 C 25,7 km/h (4 Bft) 96,23 %
14.03.2017 14:26 10,3 C 54 % 1030,2 hPa 0,0 l/m 19,0 km/h (3 Bft) W 260 0 min 0,000 mm 1,0 UV-I 273 W/m 1,4 C 4,0 C 32,2 km/h (5 Bft) 100,00 %
14.03.2017 14:28 10,3 C 54 % 1030,2 hPa 0,0 l/m 13,0 km/h (3 Bft) W-SW 256 0 min 0,000 mm 1,0 UV-I 277 W/m 1,4 C 6,4 C 19,3 km/h (3 Bft) 100,00 %
14.03.2017 14:30 10,3 C 55 % 1030,2 hPa 0,0 l/m 13,6 km/h (3 Bft) W 265 0 min 0,000 mm 1,0 UV-I 284 W/m 1,7 C 6,1 C 19,3 km/h (3 Bft) 100,00 %
14.03.2017 14:32 10,4 C 54 % 1030,3 hPa 0,0 l/m 18,1 km/h (3 Bft) W-SW 257 2 min 0,000 mm 1,0 UV-I 290 W/m 1,5 C 4,4 C 27,4 km/h (4 Bft) 96,23 %
14.03.2017 14:34 10,4 C 55 % 1030,3 hPa 0,0 l/m 15,2 km/h (3 Bft) W 260 2 min 0,000 mm 1,0 UV-I 292 W/m 1,8 C 5,5 C 24,1 km/h (4 Bft) 91,43 %
14.03.2017 14:36 10,4 C 55 % 1030,3 hPa 0,0 l/m 14,6 km/h (3 Bft) SW 225 2 min 0,000 mm 1,0 UV-I 317 W/m 1,8 C 5,8 C 22,5 km/h (4 Bft) 98,11 %
14.03.2017 14:38 10,5 C 56 % 1030,2 hPa 0,0 l/m 14,5 km/h (3 Bft) W 271 2 min 0,000 mm 1,0 UV-I 341 W/m 2,1 C 5,9 C 20,9 km/h (4 Bft) 97,73 %
14.03.2017 14:40 10,6 C 55 % 1030,3 hPa 0,0 l/m 15,6 km/h (3 Bft) W-SW 257 2 min 0,000 mm 1,0 UV-I 350 W/m 1,9 C 5,6 C 24,1 km/h (4 Bft) 96,00 %
14.03.2017 14:42 10,6 C 55 % 1030,3 hPa 0,0 l/m 17,3 km/h (3 Bft) W-SW 244 2 min 0,000 mm 1,0 UV-I 346 W/m 1,9 C 5,0 C 29,0 km/h (5 Bft) 97,62 %
14.03.2017 14:44 10,6 C 55 % 1030,2 hPa 0,0 l/m 20,3 km/h (4 Bft) W 269 2 min 0,000 mm 1,0 UV-I 337 W/m 1,9 C 4,0 C 27,4 km/h (4 Bft) 98,11 %
14.03.2017 14:46 10,6 C 55 % 1030,2 hPa 0,0 l/m 14,3 km/h (3 Bft) W-SW 244 2 min 0,000 mm 1,0 UV-I 325 W/m 1,9 C 6,2 C 27,4 km/h (4 Bft) 100,00 %
14.03.2017 14:48 10,6 C 56 % 1030,2 hPa 0,0 l/m 10,1 km/h (2 Bft) W 280 2 min 0,000 mm 0,9 UV-I 298 W/m 2,2 C 8,2 C 17,7 km/h (3 Bft) 100,00 %
14.03.2017 14:50 10,6 C 55 % 1030,2 hPa 0,0 l/m 17,6 km/h (3 Bft) W 267 2 min 0,000 mm 0,9 UV-I 294 W/m 1,9 C 4,9 C 29,0 km/h (5 Bft) 100,00 %
14.03.2017 14:52 10,7 C 56 % 1030,2 hPa 0,0 l/m 14,5 km/h (3 Bft) W-SW 255 2 min 0,000 mm 0,9 UV-I 305 W/m 2,3 C 6,2 C 20,9 km/h (4 Bft) 94,74 %
14.03.2017 14:54 10,6 C 55 % 1030,1 hPa 0,0 l/m 10,9 km/h (2 Bft) W-SW 254 2 min 0,000 mm 1,0 UV-I 358 W/m 1,9 C 7,8 C 16,1 km/h (3 Bft) 94,64 %
14.03.2017 14:56 10,7 C 56 % 1030,1 hPa 0,0 l/m 8,4 km/h (2 Bft) SW 229 2 min 0,000 mm 1,0 UV-I 381 W/m 2,3 C 9,3 C 16,1 km/h (3 Bft) 92,68 %
14.03.2017 14:58 10,8 C 56 % 1030,1 hPa 0,0 l/m 14,7 km/h (3 Bft) W-SW 242 2 min 0,000 mm 1,0 UV-I 379 W/m 2,4 C 6,2 C 20,9 km/h (4 Bft) 91,11 %
14.03.2017 15:00 10,9 C 56 % 1030,1 hPa 0,0 l/m 14,8 km/h (3 Bft) W 265 2 min 0,228 mm 1,0 UV-I 406 W/m 2,5 C 6,3 C 22,5 km/h (4 Bft) 91,49 %
14.03.2017 15:02 11,1 C 54 % 1030,1 hPa 0,0 l/m 14,3 km/h (3 Bft) W 271 2 min 0,000 mm 0,9 UV-I 378 W/m 2,2 C 6,8 C 24,1 km/h (4 Bft) 94,00 %
14.03.2017 15:04 11,0 C 55 % 1030,1 hPa 0,0 l/m 12,6 km/h (3 Bft) W-SW 252 2 min 0,000 mm 0,8 UV-I 299 W/m 2,3 C 7,4 C 30,6 km/h (5 Bft) 89,36 %
14.03.2017 15:06 10,9 C 55 % 1030,0 hPa 0,0 l/m 17,6 km/h (3 Bft) W-NW 291 2 min 0,000 mm 0,8 UV-I 273 W/m 2,2 C 5,2 C 24,1 km/h (4 Bft) 96,00 %
14.03.2017 15:08 10,8 C 55 % 1030,0 hPa 0,0 l/m 16,6 km/h (3 Bft) SW 227 2 min 0,000 mm 0,7 UV-I 263 W/m 2,1 C 5,5 C 25,7 km/h (4 Bft) 96,00 %
14.03.2017 15:10 10,7 C 55 % 1030,1 hPa 0,0 l/m 14,3 km/h (3 Bft) SW 236 2 min 0,000 mm 0,7 UV-I 265 W/m 2,0 C 6,3 C 22,5 km/h (4 Bft) 95,12 %
14.03.2017 15:12 10,7 C 56 % 1030,0 hPa 0,0 l/m 18,1 km/h (3 Bft) W-NW 286 2 min 0,000 mm 0,7 UV-I 280 W/m 2,3 C 4,8 C 29,0 km/h (5 Bft) 92,68 %
14.03.2017 15:14 10,7 C 56 % 1030,0 hPa 0,0 l/m 15,0 km/h (3 Bft) W-SW 251 2 min 0,000 mm 0,7 UV-I 246 W/m 2,3 C 6,0 C 25,7 km/h (4 Bft) 92,86 %
14.03.2017 15:16 10,6 C 57 % 1030,0 hPa 0,0 l/m 11,6 km/h (2 Bft) SW 231 0 min 0,000 mm 0,6 UV-I 209 W/m 2,4 C 7,4 C 16,1 km/h (3 Bft) 95,12 %
14.03.2017 15:18 10,7 C 57 % 1030,0 hPa 0,0 l/m 10,3 km/h (2 Bft) SW 232 0 min 0,000 mm 0,6 UV-I 198 W/m 2,5 C 8,2 C 16,1 km/h (3 Bft) 92,45 %
14.03.2017 15:20 10,6 C 57 % 1030,0 hPa 0,0 l/m 14,5 km/h (3 Bft) W-SW 251 0 min 0,000 mm 0,6 UV-I 192 W/m 2,4 C 6,1 C 19,3 km/h (3 Bft) 94,00 %
14.03.2017 15:22 10,6 C 57 % 1030,0 hPa 0,0 l/m 14,6 km/h (3 Bft) W-NW 288 0 min 0,000 mm 0,6 UV-I 183 W/m 2,4 C 6,0 C 19,3 km/h (3 Bft) 93,33 %
14.03.2017 15:24 10,5 C 56 % 1030,0 hPa 0,0 l/m 15,7 km/h (3 Bft) W 277 0 min 0,000 mm 0,5 UV-I 172 W/m 2,1 C 5,5 C 24,1 km/h (4 Bft) 93,22 %
14.03.2017 15:26 10,4 C 57 % 1029,9 hPa 0,0 l/m 12,1 km/h (2 Bft) W 260 0 min 0,000 mm 0,4 UV-I 156 W/m 2,3 C 6,9 C 17,7 km/h (3 Bft) 95,45 %
14.03.2017 15:28 10,4 C 57 % 1029,9 hPa 0,0 l/m 13,2 km/h (3 Bft) W-SW 252 0 min 0,000 mm 0,0 UV-I 141 W/m 2,3 C 6,4 C 17,7 km/h (3 Bft) 98,00 %
14.03.2017 15:30 10,3 C 58 % 1029,9 hPa 0,0 l/m 14,2 km/h (3 Bft) W 262 0 min 0,000 mm 0,0 UV-I 132 W/m 2,4 C 5,8 C 17,7 km/h (3 Bft) 95,74 %
14.03.2017 15:32 10,3 C 58 % 1029,9 hPa 0,0 l/m 10,5 km/h (2 Bft) W 262 0 min 0,000 mm 0,0 UV-I 127 W/m 2,4 C 7,6 C 17,7 km/h (3 Bft) 95,45 %
14.03.2017 15:34 10,2 C 58 % 1029,9 hPa 0,0 l/m 14,6 km/h (3 Bft) W 263 0 min 0,000 mm 0,0 UV-I 129 W/m 2,3 C 5,5 C 22,5 km/h (4 Bft) 98,11 %
14.03.2017 15:36 10,2 C 57 % 1029,9 hPa 0,0 l/m 14,7 km/h (3 Bft) W-SW 250 0 min 0,000 mm 0,0 UV-I 134 W/m 2,1 C 5,5 C 20,9 km/h (4 Bft) 91,49 %
14.03.2017 15:38 10,2 C 57 % 1029,9 hPa 0,0 l/m 9,3 km/h (2 Bft) N 9 0 min 0,000 mm 0,0 UV-I 135 W/m 2,1 C 8,2 C 16,1 km/h (3 Bft) 97,56 %
14.03.2017 15:40 10,2 C 57 % 1029,9 hPa 0,0 l/m 13,0 km/h (3 Bft) W-SW 238 0 min 0,000 mm 0,0 UV-I 128 W/m 2,1 C 6,3 C 20,9 km/h (4 Bft) 92,68 %
14.03.2017 15:42 10,1 C 57 % 1029,9 hPa 0,0 l/m 14,8 km/h (3 Bft) W 261 0 min 0,000 mm 0,0 UV-I 119 W/m 2,0 C 5,3 C 22,5 km/h (4 Bft) 95,74 %
14.03.2017 15:44 10,1 C 58 % 1029,9 hPa 0,0 l/m 6,9 km/h (2 Bft) W 265 0 min 0,000 mm 0,0 UV-I 112 W/m 2,2 C 9,7 C 11,3 km/h (2 Bft) 96,00 %
14.03.2017 15:46 10,1 C 58 % 1029,9 hPa 0,0 l/m 13,2 km/h (3 Bft) W-NW 282 0 min 0,000 mm 0,0 UV-I 103 W/m 2,2 C 6,0 C 19,3 km/h (3 Bft) 98,11 %
14.03.2017 15:48 10,1 C 58 % 1029,9 hPa 0,0 l/m 9,9 km/h (2 Bft) W 263 0 min 0,000 mm 0,0 UV-I 99 W/m 2,2 C 7,8 C 16,1 km/h (3 Bft) 94,74 %
14.03.2017 15:50 10,1 C 59 % 1030,0 hPa 0,0 l/m 9,9 km/h (2 Bft) W 259 0 min 0,000 mm 0,0 UV-I 96 W/m 2,5 C 7,8 C 14,5 km/h (3 Bft) 96,43 %
14.03.2017 15:52 10,0 C 59 % 1029,9 hPa 0,0 l/m 10,9 km/h (2 Bft) W 262 0 min 0,000 mm 0,0 UV-I 94 W/m 2,4 C 7,1 C 14,5 km/h (3 Bft) 97,37 %
14.03.2017 15:54 10,0 C 59 % 1029,8 hPa 0,0 l/m 10,8 km/h (2 Bft) W 261 0 min 0,000 mm 0,0 UV-I 90 W/m 2,4 C 7,1 C 19,3 km/h (3 Bft) 93,18 %
14.03.2017 15:56 10,0 C 58 % 1029,9 hPa 0,0 l/m 11,1 km/h (2 Bft) W 265 0 min 0,000 mm 0,0 UV-I 86 W/m 2,1 C 7,0 C 14,5 km/h (3 Bft) 94,64 %
14.03.2017 15:58 9,9 C 59 % 1029,9 hPa 0,0 l/m 10,7 km/h (2 Bft) W 265 0 min 0,000 mm 0,0 UV-I 85 W/m 2,3 C 7,1 C 19,3 km/h (3 Bft) 92,86 %
14.03.2017 16:00 9,9 C 59 % 1029,9 hPa 0,0 l/m 11,9 km/h (2 Bft) W-NW 283 0 min 0,127 mm 0,0 UV-I 85 W/m 2,3 C 6,4 C 17,7 km/h (3 Bft) 91,49 %
14.03.2017 16:02 9,9 C 59 % 1029,8 hPa 0,0 l/m 10,9 km/h (2 Bft) W-SW 256 0 min 0,000 mm 0,0 UV-I 84 W/m 2,3 C 7,0 C 17,7 km/h (3 Bft) 95,74 %
14.03.2017 16:04 9,9 C 59 % 1030,0 hPa 0,0 l/m 13,6 km/h (3 Bft) W-SW 254 0 min 0,000 mm 0,0 UV-I 78 W/m 2,3 C 5,6 C 22,5 km/h (4 Bft) 100,00 %
14.03.2017 16:06 9,9 C 58 % 1030,0 hPa 0,0 l/m 12,8 km/h (3 Bft) W 278 0 min 0,000 mm 0,0 UV-I 72 W/m 2,0 C 6,0 C 20,9 km/h (4 Bft) 95,45 %
14.03.2017 16:08 9,9 C 59 % 1029,9 hPa 0,0 l/m 8,9 km/h (2 Bft) W 267 0 min 0,000 mm 0,0 UV-I 70 W/m 2,3 C 8,2 C 16,1 km/h (3 Bft) 100,00 %
14.03.2017 16:10 9,9 C 59 % 1030,0 hPa 0,0 l/m 10,4 km/h (2 Bft) W-NW 292 0 min 0,000 mm 0,0 UV-I 70 W/m 2,3 C 7,3 C 17,7 km/h (3 Bft) 96,23 %
14.03.2017 16:12 9,8 C 59 % 1029,9 hPa 0,0 l/m 13,2 km/h (3 Bft) W 261 0 min 0,000 mm 0,0 UV-I 71 W/m 2,2 C 5,7 C 19,3 km/h (3 Bft) 94,34 %
14.03.2017 16:14 9,8 C 59 % 1029,9 hPa 0,0 l/m 9,1 km/h (2 Bft) W 259 0 min 0,000 mm 0,0 UV-I 73 W/m 2,2 C 7,9 C 14,5 km/h (3 Bft) 97,37 %
14.03.2017 16:16 9,8 C 60 % 1030,0 hPa 0,0 l/m 8,6 km/h (2 Bft) W 263 0 min 0,000 mm 0,0 UV-I 74 W/m 2,4 C 8,2 C 14,5 km/h (3 Bft) 97,87 %
14.03.2017 16:18 9,8 C 59 % 1030,0 hPa 0,0 l/m 10,1 km/h (2 Bft) W 264 0 min 0,000 mm 0,0 UV-I 72 W/m 2,2 C 7,3 C 16,1 km/h (3 Bft) 98,11 %
14.03.2017 16:20 9,8 C 60 % 1030,0 hPa 0,0 l/m 8,9 km/h (2 Bft) W 267 0 min 0,000 mm 0,0 UV-I 72 W/m 2,4 C 8,0 C 16,1 km/h (3 Bft) 100,00 %
14.03.2017 16:23 9,8 C 59 % 1030,0 hPa 0,0 l/m 8,2 km/h (2 Bft) W-SW 246 0 min 0,000 mm 0,0 UV-I 73 W/m 2,2 C 8,5 C 14,5 km/h (3 Bft) 96,34 %
14.03.2017 16:24 9,8 C 60 % 1030,0 hPa 0,0 l/m 13,3 km/h (3 Bft) W 266 0 min 0,000 mm 0,0 UV-I 70 W/m 2,4 C 5,6 C 16,1 km/h (3 Bft) 95,24 %
14.03.2017 16:25 9,8 C 59 % 1030,0 hPa 0,0 l/m 9,7 km/h (2 Bft) W 270 0 min 0,000 mm 0,0 UV-I 71 W/m 2,2 C 7,6 C 16,1 km/h (3 Bft) 97,37 %
14.03.2017 16:28 9,8 C 59 % 1029,9 hPa 0,0 l/m 10,4 km/h (2 Bft) W 271 0 min 0,000 mm 0,0 UV-I 64 W/m 2,2 C 7,1 C 16,1 km/h (3 Bft) 97,06 %
14.03.2017 16:30 9,8 C 60 % 1029,9 hPa 0,0 l/m 8,5 km/h (2 Bft) W 269 0 min 0,000 mm 0,0 UV-I 61 W/m 2,4 C 8,3 C 16,1 km/h (3 Bft) 100,00 %
14.03.2017 16:32 9,8 C 60 % 1029,9 hPa 0,0 l/m 10,6 km/h (2 Bft) W 261 0 min 0,000 mm 0,0 UV-I 59 W/m 2,4 C 7,0 C 17,7 km/h (3 Bft) 97,56 %
14.03.2017 16:34 9,8 C 59 % 1029,9 hPa 0,0 l/m 9,5 km/h (2 Bft) W-SW 237 0 min 0,000 mm 0,0 UV-I 55 W/m 2,2 C 7,7 C 14,5 km/h (3 Bft) 92,00 %
14.03.2017 16:36 9,8 C 60 % 1029,8 hPa 0,0 l/m 9,5 km/h (2 Bft) W 278 0 min 0,000 mm 0,0 UV-I 51 W/m 2,4 C 7,7 C 16,1 km/h (3 Bft) 95,45 %
14.03.2017 16:38 9,7 C 60 % 1029,8 hPa 0,0 l/m 7,3 km/h (2 Bft) W-SW 246 0 min 0,000 mm 0,0 UV-I 50 W/m 2,3 C 9,0 C 9,7 km/h (2 Bft) 94,64 %
14.03.2017 16:40 9,7 C 60 % 1029,8 hPa 0,0 l/m 8,4 km/h (2 Bft) W 275 0 min 0,000 mm 0,0 UV-I 51 W/m 2,3 C 8,3 C 12,9 km/h (3 Bft) 100,00 %
14.03.2017 16:42 9,7 C 60 % 1029,8 hPa 0,0 l/m 8,1 km/h (2 Bft) SW 232 0 min 0,000 mm 0,0 UV-I 51 W/m 2,3 C 8,5 C 12,9 km/h (3 Bft) 95,45 %
14.03.2017 16:44 9,7 C 61 % 1029,8 hPa 0,0 l/m 10,0 km/h (2 Bft) W-SW 251 0 min 0,000 mm 0,0 UV-I 50 W/m 2,5 C 7,3 C 12,9 km/h (3 Bft) 94,92 %
14.03.2017 16:46 9,7 C 61 % 1029,7 hPa 0,0 l/m 7,5 km/h (2 Bft) W-NW 286 0 min 0,000 mm 0,0 UV-I 47 W/m 2,5 C 8,9 C 11,3 km/h (2 Bft) 97,56 %
14.03.2017 16:48 9,7 C 62 % 1029,7 hPa 0,0 l/m 7,8 km/h (2 Bft) SW 227 0 min 0,000 mm 0,0 UV-I 44 W/m 2,8 C 8,7 C 11,3 km/h (2 Bft) 98,11 %
14.03.2017 16:50 9,6 C 61 % 1029,8 hPa 0,0 l/m 8,0 km/h (2 Bft) W-SW 246 0 min 0,000 mm 0,0 UV-I 41 W/m 2,5 C 8,4 C 12,9 km/h (3 Bft) 95,45 %
14.03.2017 16:52 9,6 C 61 % 1029,7 hPa 0,0 l/m 7,7 km/h (2 Bft) W-SW 244 0 min 0,000 mm 0,0 UV-I 39 W/m 2,5 C 8,6 C 12,9 km/h (3 Bft) 97,56 %
14.03.2017 16:54 9,5 C 62 % 1029,7 hPa 0,0 l/m 10,1 km/h (2 Bft) W-SW 239 0 min 0,000 mm 0,0 UV-I 38 W/m 2,6 C 7,0 C 14,5 km/h (3 Bft) 94,34 %
14.03.2017 16:56 9,5 C 62 % 1029,7 hPa 0,0 l/m 9,7 km/h (2 Bft) SW 234 0 min 0,000 mm 0,0 UV-I 36 W/m 2,6 C 7,2 C 14,5 km/h (3 Bft) 95,45 %
14.03.2017 16:58 9,5 C 62 % 1029,6 hPa 0,0 l/m 9,1 km/h (2 Bft) W-SW 246 0 min 0,000 mm 0,0 UV-I 32 W/m 2,6 C 7,6 C 14,5 km/h (3 Bft) 92,86 %
14.03.2017 17:00 9,4 C 62 % 1029,6 hPa 0,0 l/m 8,3 km/h (2 Bft) SW 231 0 min 0,000 mm 0,0 UV-I 30 W/m 2,5 C 8,0 C 12,9 km/h (3 Bft) 94,00 %
14.03.2017 17:02 9,4 C 62 % 1029,5 hPa 0,0 l/m 7,8 km/h (2 Bft) SW 223 0 min 0,076 mm 0,0 UV-I 26 W/m 2,5 C 8,4 C 12,9 km/h (3 Bft) 95,12 %
14.03.2017 17:04 9,4 C 62 % 1029,5 hPa 0,0 l/m 8,8 km/h (2 Bft) SW 234 0 min 0,000 mm 0,0 UV-I 25 W/m 2,5 C 7,7 C 12,9 km/h (3 Bft) 96,43 %
14.03.2017 17:06 9,4 C 63 % 1029,4 hPa 0,0 l/m 6,3 km/h (2 Bft) W-SW 238 0 min 0,000 mm 0,0 UV-I 25 W/m 2,7 C 9,4 C 9,7 km/h (2 Bft) 95,74 %
14.03.2017 17:08 9,4 C 63 % 1029,4 hPa 0,0 l/m 8,3 km/h (2 Bft) SW 228 0 min 0,000 mm 0,0 UV-I 25 W/m 2,7 C 8,0 C 11,3 km/h (2 Bft) 92,68 %
14.03.2017 17:10 9,3 C 63 % 1029,4 hPa 0,0 l/m 8,6 km/h (2 Bft) SW 215 0 min 0,000 mm 0,0 UV-I 25 W/m 2,6 C 7,7 C 12,9 km/h (3 Bft) 96,43 %
14.03.2017 17:12 9,3 C 63 % 1029,4 hPa 0,0 l/m 11,5 km/h (2 Bft) W 265 0 min 0,000 mm 0,0 UV-I 24 W/m 2,6 C 6,0 C 16,1 km/h (3 Bft) 97,56 %
14.03.2017 17:14 9,3 C 63 % 1029,5 hPa 0,0 l/m 9,6 km/h (2 Bft) W-SW 257 0 min 0,000 mm 0,0 UV-I 23 W/m 2,6 C 7,1 C 14,5 km/h (3 Bft) 94,34 %
14.03.2017 17:16 9,3 C 63 % 1029,4 hPa 0,0 l/m 11,5 km/h (2 Bft) W-SW 252 0 min 0,000 mm 0,0 UV-I 21 W/m 2,6 C 6,0 C 17,7 km/h (3 Bft) 92,86 %
14.03.2017 17:18 9,3 C 63 % 1029,5 hPa 0,0 l/m 11,4 km/h (2 Bft) W-SW 248 0 min 0,000 mm 0,0 UV-I 21 W/m 2,6 C 6,0 C 14,5 km/h (3 Bft) 91,49 %
14.03.2017 17:20 9,3 C 63 % 1029,5 hPa 0,0 l/m 11,6 km/h (2 Bft) W 264 0 min 0,000 mm 0,0 UV-I 21 W/m 2,6 C 5,9 C 17,7 km/h (3 Bft) 95,12 %
14.03.2017 17:22 9,3 C 63 % 1029,5 hPa 0,0 l/m 9,4 km/h (2 Bft) W-SW 250 0 min 0,000 mm 0,0 UV-I 21 W/m 2,6 C 7,2 C 14,5 km/h (3 Bft) 91,07 %
14.03.2017 17:24 9,2 C 63 % 1029,6 hPa 0,0 l/m 12,1 km/h (2 Bft) W-SW 244 0 min 0,000 mm 0,0 UV-I 21 W/m 2,5 C 5,5 C 17,7 km/h (3 Bft) 95,45 %
14.03.2017 17:26 9,2 C 63 % 1029,6 hPa 0,0 l/m 11,7 km/h (2 Bft) W 262 0 min 0,000 mm 0,0 UV-I 20 W/m 2,5 C 5,8 C 16,1 km/h (3 Bft) 97,87 %
14.03.2017 17:28 9,2 C 63 % 1029,6 hPa 0,0 l/m 11,4 km/h (2 Bft) W 260 0 min 0,000 mm 0,0 UV-I 19 W/m 2,5 C 5,9 C 17,7 km/h (3 Bft) 95,74 %
14.03.2017 17:30 9,2 C 63 % 1029,6 hPa 0,0 l/m 10,8 km/h (2 Bft) W-SW 250 0 min 0,000 mm 0,0 UV-I 18 W/m 2,5 C 6,2 C 14,5 km/h (3 Bft) 97,30 %
14.03.2017 17:32 9,2 C 63 % 1029,6 hPa 0,0 l/m 11,5 km/h (2 Bft) W-SW 249 0 min 0,000 mm 0,0 UV-I 19 W/m 2,5 C 5,9 C 16,1 km/h (3 Bft) 95,83 %
14.03.2017 17:34 9,2 C 63 % 1029,6 hPa 0,0 l/m 10,3 km/h (2 Bft) W 277 0 min 0,000 mm 0,0 UV-I 22 W/m 2,5 C 6,5 C 16,1 km/h (3 Bft) 97,56 %
14.03.2017 17:36 9,2 C 63 % 1029,6 hPa 0,0 l/m 11,9 km/h (2 Bft) W-SW 258 0 min 0,000 mm 0,0 UV-I 23 W/m 2,5 C 5,6 C 14,5 km/h (3 Bft) 95,31 %
14.03.2017 17:38 9,2 C 64 % 1029,7 hPa 0,0 l/m 9,8 km/h (2 Bft) W-SW 243 0 min 0,000 mm 0,0 UV-I 20 W/m 2,8 C 6,8 C 14,5 km/h (3 Bft) 93,62 %
14.03.2017 17:40 9,2 C 64 % 1029,7 hPa 0,0 l/m 12,4 km/h (3 Bft) W 263 0 min 0,000 mm 0,0 UV-I 17 W/m 2,8 C 5,4 C 16,1 km/h (3 Bft) 97,22 %
14.03.2017 17:42 9,1 C 63 % 1029,7 hPa 0,0 l/m 10,7 km/h (2 Bft) W-SW 248 0 min 0,000 mm 0,0 UV-I 16 W/m 2,4 C 6,2 C 17,7 km/h (3 Bft) 100,00 %
14.03.2017 17:44 9,1 C 64 % 1029,8 hPa 0,0 l/m 12,6 km/h (3 Bft) W 262 0 min 0,000 mm 0,0 UV-I 14 W/m 2,7 C 5,2 C 17,7 km/h (3 Bft) 100,00 %
14.03.2017 17:46 9,1 C 64 % 1029,8 hPa 0,0 l/m 9,6 km/h (2 Bft) W 273 0 min 0,000 mm 0,0 UV-I 13 W/m 2,7 C 6,8 C 12,9 km/h (3 Bft) 94,64 %
14.03.2017 17:48 9,1 C 64 % 1029,7 hPa 0,0 l/m 9,0 km/h (2 Bft) W-SW 250 0 min 0,000 mm 0,0 UV-I 12 W/m 2,7 C 7,2 C 12,9 km/h (3 Bft) 100,00 %
14.03.2017 17:50 9,1 C 64 % 1029,8 hPa 0,0 l/m 10,2 km/h (2 Bft) W-SW 250 0 min 0,000 mm 0,0 UV-I 12 W/m 2,7 C 6,5 C 14,5 km/h (3 Bft) 97,87 %
14.03.2017 17:52 9,0 C 64 % 1029,8 hPa 0,0 l/m 7,8 km/h (2 Bft) W-SW 246 0 min 0,000 mm 0,0 UV-I 11 W/m 2,6 C 7,9 C 11,3 km/h (2 Bft) 100,00 %
14.03.2017 17:54 9,0 C 64 % 1029,8 hPa 0,0 l/m 8,8 km/h (2 Bft) W 274 0 min 0,000 mm 0,0 UV-I 11 W/m 2,6 C 7,3 C 11,3 km/h (2 Bft) 97,87 %
14.03.2017 17:56 9,0 C 64 % 1029,8 hPa 0,0 l/m 9,3 km/h (2 Bft) W-SW 253 0 min 0,000 mm 0,0 UV-I 9 W/m 2,6 C 6,9 C 16,1 km/h (3 Bft) 100,00 %
14.03.2017 17:58 9,0 C 64 % 1029,8 hPa 0,0 l/m 7,2 km/h (2 Bft) W-SW 255 0 min 0,000 mm 0,0 UV-I 7 W/m 2,6 C 8,4 C 12,9 km/h (3 Bft) 97,56 %
14.03.2017 18:00 9,0 C 64 % 1029,8 hPa 0,0 l/m 5,6 km/h (1 Bft) W 267 0 min 0,000 mm 0,0 UV-I 7 W/m 2,6 C 9,0 C 9,7 km/h (2 Bft) 100,00 %
14.03.2017 18:02 8,9 C 65 % 1029,8 hPa 0,0 l/m 6,5 km/h (2 Bft) W 275 0 min 0,051 mm 0,0 UV-I 6 W/m 2,7 C 8,9 C 9,7 km/h (2 Bft) 100,00 %
14.03.2017 18:04 8,9 C 65 % 1029,9 hPa 0,0 l/m 6,8 km/h (2 Bft) W-SW 255 0 min 0,000 mm 0,0 UV-I 5 W/m 2,7 C 8,6 C 12,9 km/h (3 Bft) 96,30 %
14.03.2017 18:06 8,8 C 65 % 1029,9 hPa 0,0 l/m 6,3 km/h (2 Bft) W 270 0 min 0,000 mm 0,0 UV-I 5 W/m 2,6 C 8,8 C 11,3 km/h (2 Bft) 91,49 %
14.03.2017 18:08 8,8 C 65 % 1029,9 hPa 0,0 l/m 7,3 km/h (2 Bft) W 259 0 min 0,000 mm 0,0 UV-I 2 W/m 2,6 C 8,1 C 12,9 km/h (3 Bft) 100,00 %
14.03.2017 18:10 8,8 C 65 % 1029,9 hPa 0,0 l/m 8,4 km/h (2 Bft) W 280 0 min 0,000 mm 0,0 UV-I 0 W/m 2,6 C 7,3 C 12,9 km/h (3 Bft) 100,00 %
14.03.2017 18:12 8,8 C 64 % 1029,9 hPa 0,0 l/m 5,6 km/h (1 Bft) W 268 0 min 0,000 mm 0,0 UV-I 0 W/m 2,4 C 8,8 C 9,7 km/h (2 Bft) 98,11 %
14.03.2017 18:14 8,8 C 64 % 1029,8 hPa 0,0 l/m 6,4 km/h (2 Bft) W 263 0 min 0,000 mm 0,0 UV-I 0 W/m 2,4 C 8,8 C 11,3 km/h (2 Bft) 100,00 %
14.03.2017 18:16 8,8 C 65 % 1029,8 hPa 0,0 l/m 6,7 km/h (2 Bft) W-SW 251 0 min 0,000 mm 0,0 UV-I 0 W/m 2,6 C 8,6 C 9,7 km/h (2 Bft) 100,00 %
14.03.2017 18:18 8,8 C 65 % 1029,7 hPa 0,0 l/m 6,7 km/h (2 Bft) W-SW 252 0 min 0,000 mm 0,0 UV-I 0 W/m 2,6 C 8,6 C 11,3 km/h (2 Bft) 92,68 %
14.03.2017 18:20 8,8 C 65 % 1029,8 hPa 0,0 l/m 5,7 km/h (1 Bft) W 263 0 min 0,000 mm 0,0 UV-I 0 W/m 2,6 C 8,8 C 9,7 km/h (2 Bft) 100,00 %
14.03.2017 18:22 8,8 C 65 % 1029,8 hPa 0,0 l/m 6,1 km/h (2 Bft) W-SW 251 0 min 0,000 mm 0,0 UV-I 0 W/m 2,6 C 8,8 C 8,0 km/h (2 Bft) 100,00 %
14.03.2017 18:24 8,7 C 66 % 1029,7 hPa 0,0 l/m 7,2 km/h (2 Bft) W 259 0 min 0,000 mm 0,0 UV-I 0 W/m 2,7 C 8,1 C 11,3 km/h (2 Bft) 98,11 %
14.03.2017 18:26 8,7 C 66 % 1029,8 hPa 0,0 l/m 7,9 km/h (2 Bft) W-SW 250 0 min 0,000 mm 0,0 UV-I 0 W/m 2,7 C 7,6 C 11,3 km/h (2 Bft) 98,08 %
14.03.2017 18:28 8,7 C 66 % 1029,7 hPa 0,0 l/m 7,1 km/h (2 Bft) W-SW 257 0 min 0,000 mm 0,0 UV-I 0 W/m 2,7 C 8,2 C 11,3 km/h (2 Bft) 100,00 %
14.03.2017 18:30 8,7 C 66 % 1029,7 hPa 0,0 l/m 7,0 km/h (2 Bft) W 259 0 min 0,000 mm 0,0 UV-I 0 W/m 2,7 C 8,2 C 11,3 km/h (2 Bft) 98,00 %
14.03.2017 18:32 8,7 C 66 % 1029,7 hPa 0,0 l/m 7,9 km/h (2 Bft) W-SW 254 0 min 0,000 mm 0,0 UV-I 0 W/m 2,7 C 7,6 C 11,3 km/h (2 Bft) 94,74 %
14.03.2017 18:34 8,6 C 66 % 1029,7 hPa 0,0 l/m 6,6 km/h (2 Bft) W-SW 258 0 min 0,000 mm 0,0 UV-I 0 W/m 2,6 C 8,5 C 9,7 km/h (2 Bft) 95,45 %
14.03.2017 18:36 8,6 C 66 % 1029,7 hPa 0,0 l/m 8,5 km/h (2 Bft) W 263 0 min 0,000 mm 0,0 UV-I 0 W/m 2,6 C 7,0 C 14,5 km/h (3 Bft) 100,00 %
14.03.2017 18:38 8,6 C 66 % 1029,7 hPa 0,0 l/m 10,9 km/h (2 Bft) W 279 0 min 0,000 mm 0,0 UV-I 0 W/m 2,6 C 5,5 C 14,5 km/h (3 Bft) 98,39 %
14.03.2017 18:40 8,6 C 66 % 1029,8 hPa 0,0 l/m 8,5 km/h (2 Bft) W 277 0 min 0,000 mm 0,0 UV-I 0 W/m 2,6 C 7,0 C 12,9 km/h (3 Bft) 100,00 %
14.03.2017 18:42 8,6 C 66 % 1029,8 hPa 0,0 l/m 7,1 km/h (2 Bft) W 266 0 min 0,000 mm 0,0 UV-I 0 W/m 2,6 C 8,1 C 11,3 km/h (2 Bft) 98,46 %
14.03.2017 18:44 8,6 C 66 % 1029,8 hPa 0,0 l/m 6,9 km/h (2 Bft) W-SW 257 0 min 0,000 mm 0,0 UV-I 0 W/m 2,6 C 8,2 C 11,3 km/h (2 Bft) 97,73 %
14.03.2017 18:46 8,6 C 66 % 1029,8 hPa 0,0 l/m 7,6 km/h (2 Bft) W-SW 255 0 min 0,000 mm 0,0 UV-I 0 W/m 2,6 C 7,7 C 12,9 km/h (3 Bft) 100,00 %
14.03.2017 18:48 8,6 C 66 % 1029,8 hPa 0,0 l/m 7,0 km/h (2 Bft) W 265 0 min 0,000 mm 0,0 UV-I 0 W/m 2,6 C 8,1 C 9,7 km/h (2 Bft) 100,00 %
14.03.2017 18:50 8,6 C 66 % 1029,8 hPa 0,0 l/m 7,7 km/h (2 Bft) W 262 0 min 0,000 mm 0,0 UV-I 0 W/m 2,6 C 7,6 C 11,3 km/h (2 Bft) 96,00 %
14.03.2017 18:52 8,6 C 67 % 1029,9 hPa 0,0 l/m 6,1 km/h (2 Bft) W 263 0 min 0,000 mm 0,0 UV-I 0 W/m 2,8 C 8,6 C 9,7 km/h (2 Bft) 100,00 %
14.03.2017 18:54 8,5 C 67 % 1029,9 hPa 0,0 l/m 8,1 km/h (2 Bft) W 259 0 min 0,000 mm 0,0 UV-I 0 W/m 2,7 C 7,2 C 11,3 km/h (2 Bft) 92,11 %
14.03.2017 18:56 8,5 C 67 % 1029,8 hPa 0,0 l/m 9,1 km/h (2 Bft) W 263 0 min 0,000 mm 0,0 UV-I 0 W/m 2,7 C 6,5 C 12,9 km/h (3 Bft) 96,88 %
14.03.2017 18:58 8,4 C 67 % 1029,9 hPa 0,0 l/m 8,1 km/h (2 Bft) W 261 0 min 0,000 mm 0,0 UV-I 0 W/m 2,6 C 7,1 C 11,3 km/h (2 Bft) 95,56 %
14.03.2017 19:00 8,4 C 67 % 1029,8 hPa 0,0 l/m 7,8 km/h (2 Bft) W 259 0 min 0,000 mm 0,0 UV-I 0 W/m 2,6 C 7,3 C 11,3 km/h (2 Bft) 96,00 %
14.03.2017 19:02 8,4 C 67 % 1029,8 hPa 0,0 l/m 8,3 km/h (2 Bft) W-SW 249 0 min 0,026 mm 0,0 UV-I 0 W/m 2,6 C 7,0 C 12,9 km/h (3 Bft) 94,29 %
14.03.2017 19:04 8,4 C 67 % 1029,8 hPa 0,0 l/m 8,0 km/h (2 Bft) W 272 0 min 0,000 mm 0,0 UV-I 0 W/m 2,6 C 7,2 C 12,9 km/h (3 Bft) 96,43 %
14.03.2017 19:06 8,4 C 67 % 1029,8 hPa 0,0 l/m 7,2 km/h (2 Bft) W 269 0 min 0,000 mm 0,0 UV-I 0 W/m 2,6 C 7,8 C 11,3 km/h (2 Bft) 97,87 %
14.03.2017 19:08 8,4 C 67 % 1029,8 hPa 0,0 l/m 5,9 km/h (2 Bft) W-SW 254 0 min 0,000 mm 0,0 UV-I 0 W/m 2,6 C 8,4 C 11,3 km/h (2 Bft) 95,74 %
14.03.2017 19:10 8,4 C 67 % 1029,8 hPa 0,0 l/m 5,6 km/h (1 Bft) W 265 0 min 0,000 mm 0,0 UV-I 0 W/m 2,6 C 8,4 C 9,7 km/h (2 Bft) 93,62 %
14.03.2017 19:12 8,4 C 67 % 1029,8 hPa 0,0 l/m 5,3 km/h (1 Bft) W-NW 285 0 min 0,000 mm 0,0 UV-I 0 W/m 2,6 C 8,4 C 11,3 km/h (2 Bft) 90,00 %
14.03.2017 19:14 8,4 C 68 % 1029,8 hPa 0,0 l/m 5,1 km/h (1 Bft) W 267 0 min 0,000 mm 0,0 UV-I 0 W/m 2,8 C 8,4 C 9,7 km/h (2 Bft) 95,74 %
14.03.2017 19:16 8,3 C 68 % 1029,8 hPa 0,0 l/m 4,0 km/h (1 Bft) W 267 0 min 0,000 mm 0,0 UV-I 0 W/m 2,7 C 8,3 C 4,8 km/h (1 Bft) 92,68 %
14.03.2017 19:18 8,3 C 68 % 1029,8 hPa 0,0 l/m 4,8 km/h (1 Bft) W 266 0 min 0,000 mm 0,0 UV-I 0 W/m 2,7 C 8,3 C 6,4 km/h (2 Bft) 96,00 %
14.03.2017 19:20 8,3 C 68 % 1029,8 hPa 0,0 l/m 5,8 km/h (2 Bft) W 260 0 min 0,000 mm 0,0 UV-I 0 W/m 2,7 C 8,3 C 8,0 km/h (2 Bft) 94,29 %
14.03.2017 19:23 8,3 C 68 % 1029,7 hPa 0,0 l/m 5,1 km/h (1 Bft) W 259 0 min 0,000 mm 0,0 UV-I 0 W/m 2,7 C 8,3 C 9,7 km/h (2 Bft) 96,10 %
14.03.2017 19:24 8,3 C 68 % 1029,7 hPa 0,0 l/m 6,8 km/h (2 Bft) W 260 0 min 0,000 mm 0,0 UV-I 0 W/m 2,7 C 8,0 C 9,7 km/h (2 Bft) 91,30 %
14.03.2017 19:26 8,3 C 68 % 1029,7 hPa 0,0 l/m 5,8 km/h (2 Bft) W 259 0 min 0,000 mm 0,0 UV-I 0 W/m 2,7 C 8,3 C 9,7 km/h (2 Bft) 96,00 %
14.03.2017 19:28 8,3 C 68 % 1029,8 hPa 0,0 l/m 6,0 km/h (2 Bft) W-SW 257 0 min 0,000 mm 0,0 UV-I 0 W/m 2,7 C 8,3 C 8,0 km/h (2 Bft) 92,00 %
14.03.2017 19:30 8,3 C 68 % 1029,8 hPa 0,0 l/m 6,4 km/h (2 Bft) W-SW 257 0 min 0,000 mm 0,0 UV-I 0 W/m 2,7 C 8,3 C 11,3 km/h (2 Bft) 97,73 %
14.03.2017 19:32 8,2 C 68 % 1029,8 hPa 0,0 l/m 6,8 km/h (2 Bft) W-SW 255 0 min 0,000 mm 0,0 UV-I 0 W/m 2,7 C 7,9 C 11,3 km/h (2 Bft) 98,00 %
14.03.2017 19:34 8,2 C 68 % 1029,8 hPa 0,0 l/m 5,8 km/h (2 Bft) W 266 0 min 0,000 mm 0,0 UV-I 0 W/m 2,7 C 8,2 C 9,7 km/h (2 Bft) 93,62 %
14.03.2017 19:36 8,2 C 68 % 1029,9 hPa 0,0 l/m 5,4 km/h (1 Bft) W 263 0 min 0,000 mm 0,0 UV-I 0 W/m 2,7 C 8,2 C 6,4 km/h (2 Bft) 95,74 %
14.03.2017 19:38 8,2 C 68 % 1029,8 hPa 0,0 l/m 5,8 km/h (2 Bft) W-SW 248 0 min 0,000 mm 0,0 UV-I 0 W/m 2,7 C 8,2 C 9,7 km/h (2 Bft) 94,44 %
14.03.2017 19:40 8,2 C 68 % 1029,8 hPa 0,0 l/m 5,0 km/h (1 Bft) W-SW 253 0 min 0,000 mm 0,0 UV-I 0 W/m 2,7 C 8,2 C 6,4 km/h (2 Bft) 98,00 %
14.03.2017 19:42 8,2 C 68 % 1029,9 hPa 0,0 l/m 4,4 km/h (1 Bft) W-SW 248 0 min 0,000 mm 0,0 UV-I 0 W/m 2,7 C 8,2 C 6,4 km/h (2 Bft) 96,00 %
14.03.2017 19:44 8,2 C 68 % 1029,9 hPa 0,0 l/m 5,2 km/h (1 Bft) W-SW 246 0 min 0,000 mm 0,0 UV-I 0 W/m 2,7 C 8,2 C 8,0 km/h (2 Bft) 94,34 %
14.03.2017 19:46 8,2 C 68 % 1029,9 hPa 0,0 l/m 4,5 km/h (1 Bft) W-SW 248 0 min 0,000 mm 0,0 UV-I 0 W/m 2,7 C 8,2 C 6,4 km/h (2 Bft) 97,37 %
14.03.2017 19:48 8,2 C 68 % 1029,9 hPa 0,0 l/m 4,2 km/h (1 Bft) W-SW 248 0 min 0,000 mm 0,0 UV-I 0 W/m 2,7 C 8,2 C 4,8 km/h (1 Bft) 98,00 %
14.03.2017 19:50 8,2 C 69 % 1029,9 hPa 0,0 l/m 4,7 km/h (1 Bft) W-SW 248 0 min 0,000 mm 0,0 UV-I 0 W/m 2,9 C 8,2 C 6,4 km/h (2 Bft) 93,62 %
14.03.2017 19:52 8,1 C 69 % 1029,9 hPa 0,0 l/m 4,0 km/h (1 Bft) W-SW 248 0 min 0,000 mm 0,0 UV-I 0 W/m 2,8 C 8,1 C 4,8 km/h (1 Bft) 95,65 %
14.03.2017 19:54 8,1 C 69 % 1030,0 hPa 0,0 l/m 4,3 km/h (1 Bft) W-SW 248 0 min 0,000 mm 0,0 UV-I 0 W/m 2,8 C 8,1 C 4,8 km/h (1 Bft) 97,30 %
14.03.2017 19:56 8,1 C 70 % 1030,0 hPa 0,0 l/m 4,8 km/h (1 Bft) W-SW 247 0 min 0,000 mm 0,0 UV-I 0 W/m 3,0 C 8,1 C 6,4 km/h (2 Bft) 91,49 %
14.03.2017 19:58 8,0 C 70 % 1030,0 hPa 0,0 l/m 4,2 km/h (1 Bft) W-SW 246 0 min 0,000 mm 0,0 UV-I 0 W/m 2,9 C 8,0 C 6,4 km/h (2 Bft) 92,68 %
14.03.2017 20:00 7,9 C 70 % 1030,0 hPa 0,0 l/m 4,7 km/h (1 Bft) W-SW 246 0 min 0,025 mm 0,0 UV-I 0 W/m 2,8 C 7,9 C 6,4 km/h (2 Bft) 95,45 %
14.03.2017 20:02 7,9 C 71 % 1030,0 hPa 0,0 l/m 5,5 km/h (1 Bft) W-SW 238 0 min 0,000 mm 0,0 UV-I 0 W/m 3,0 C 7,9 C 6,4 km/h (2 Bft) 98,11 %
14.03.2017 20:04 7,8 C 71 % 1030,0 hPa 0,0 l/m 5,2 km/h (1 Bft) SW 234 0 min 0,000 mm 0,0 UV-I 0 W/m 2,9 C 7,8 C 6,4 km/h (2 Bft) 93,62 %
14.03.2017 20:06 7,8 C 72 % 1030,0 hPa 0,0 l/m 5,7 km/h (1 Bft) SW 236 0 min 0,000 mm 0,0 UV-I 0 W/m 3,1 C 7,8 C 8,0 km/h (2 Bft) 92,68 %
14.03.2017 20:08 7,7 C 72 % 1030,1 hPa 0,0 l/m 5,3 km/h (1 Bft) SW 233 0 min 0,000 mm 0,0 UV-I 0 W/m 3,0 C 7,7 C 6,4 km/h (2 Bft) 94,34 %
14.03.2017 20:10 7,7 C 72 % 1030,1 hPa 0,0 l/m 5,1 km/h (1 Bft) W-SW 248 0 min 0,000 mm 0,0 UV-I 0 W/m 3,0 C 7,7 C 6,4 km/h (2 Bft) 97,44 %
14.03.2017 20:12 7,6 C 73 % 1030,1 hPa 0,0 l/m 6,8 km/h (2 Bft) W-SW 247 0 min 0,000 mm 0,0 UV-I 0 W/m 3,1 C 7,3 C 11,3 km/h (2 Bft) 94,55 %
14.03.2017 20:14 7,6 C 73 % 1030,1 hPa 0,0 l/m 6,8 km/h (2 Bft) W-SW 242 0 min 0,000 mm 0,0 UV-I 0 W/m 3,1 C 7,3 C 9,7 km/h (2 Bft) 92,31 %
14.03.2017 20:16 7,6 C 73 % 1030,1 hPa 0,0 l/m 5,6 km/h (1 Bft) W-SW 250 0 min 0,000 mm 0,0 UV-I 0 W/m 3,1 C 7,6 C 6,4 km/h (2 Bft) 98,00 %
14.03.2017 20:18 7,6 C 74 % 1030,1 hPa 0,0 l/m 6,1 km/h (2 Bft) W-SW 246 0 min 0,000 mm 0,0 UV-I 0 W/m 3,3 C 7,6 C 8,0 km/h (2 Bft) 91,49 %
14.03.2017 20:20 7,5 C 74 % 1030,1 hPa 0,0 l/m 5,1 km/h (1 Bft) W-SW 247 0 min 0,000 mm 0,0 UV-I 0 W/m 3,2 C 7,5 C 8,0 km/h (2 Bft) 94,34 %
14.03.2017 20:22 7,4 C 74 % 1030,2 hPa 0,0 l/m 5,5 km/h (1 Bft) W-SW 250 0 min 0,000 mm 0,0 UV-I 0 W/m 3,1 C 7,4 C 6,4 km/h (2 Bft) 94,74 %
14.03.2017 20:24 7,4 C 74 % 1030,1 hPa 0,0 l/m 4,1 km/h (1 Bft) W-SW 249 0 min 0,000 mm 0,0 UV-I 0 W/m 3,1 C 7,4 C 6,4 km/h (2 Bft) 96,23 %
14.03.2017 20:26 7,4 C 74 % 1030,2 hPa 0,0 l/m 5,9 km/h (2 Bft) W-SW 248 0 min 0,000 mm 0,0 UV-I 0 W/m 3,1 C 7,4 C 8,0 km/h (2 Bft) 97,56 %
14.03.2017 20:28 7,4 C 74 % 1030,2 hPa 0,0 l/m 5,4 km/h (1 Bft) W-SW 246 0 min 0,000 mm 0,0 UV-I 0 W/m 3,1 C 7,4 C 6,4 km/h (2 Bft) 98,00 %
14.03.2017 20:30 7,3 C 74 % 1030,2 hPa 0,0 l/m 6,2 km/h (2 Bft) W-SW 253 0 min 0,000 mm 0,0 UV-I 0 W/m 3,0 C 7,3 C 8,0 km/h (2 Bft) 100,00 %
14.03.2017 20:32 7,4 C 74 % 1030,2 hPa 0,0 l/m 5,8 km/h (2 Bft) W-SW 257 0 min 0,000 mm 0,0 UV-I 0 W/m 3,1 C 7,4 C 8,0 km/h (2 Bft) 100,00 %
14.03.2017 20:34 7,4 C 74 % 1030,2 hPa 0,0 l/m 6,5 km/h (2 Bft) W 259 0 min 0,000 mm 0,0 UV-I 0 W/m 3,1 C 7,3 C 9,7 km/h (2 Bft) 96,23 %
14.03.2017 20:36 7,4 C 74 % 1030,2 hPa 0,0 l/m 8,5 km/h (2 Bft) W-SW 255 0 min 0,000 mm 0,0 UV-I 0 W/m 3,1 C 5,8 C 11,3 km/h (2 Bft) 95,74 %
14.03.2017 20:38 7,4 C 74 % 1030,2 hPa 0,0 l/m 8,5 km/h (2 Bft) W-SW 250 0 min 0,000 mm 0,0 UV-I 0 W/m 3,1 C 5,8 C 11,3 km/h (2 Bft) 94,00 %
14.03.2017 20:40 7,5 C 73 % 1030,3 hPa 0,0 l/m 7,3 km/h (2 Bft) W-SW 253 0 min 0,000 mm 0,0 UV-I 0 W/m 3,0 C 6,8 C 11,3 km/h (2 Bft) 95,12 %
14.03.2017 20:42 7,6 C 73 % 1030,3 hPa 0,0 l/m 6,2 km/h (2 Bft) SW 227 0 min 0,000 mm 0,0 UV-I 0 W/m 3,1 C 7,6 C 8,0 km/h (2 Bft) 97,73 %
14.03.2017 20:44 7,6 C 73 % 1030,3 hPa 0,0 l/m 7,1 km/h (2 Bft) W-SW 243 0 min 0,000 mm 0,0 UV-I 0 W/m 3,1 C 7,0 C 11,3 km/h (2 Bft) 98,11 %
14.03.2017 20:46 7,6 C 73 % 1030,3 hPa 0,0 l/m 6,3 km/h (2 Bft) W-SW 247 0 min 0,000 mm 0,0 UV-I 0 W/m 3,1 C 7,6 C 8,0 km/h (2 Bft) 94,74 %
14.03.2017 20:48 7,6 C 73 % 1030,2 hPa 0,0 l/m 7,1 km/h (2 Bft) W-SW 252 0 min 0,000 mm 0,0 UV-I 0 W/m 3,1 C 7,0 C 11,3 km/h (2 Bft) 92,00 %
14.03.2017 20:50 7,6 C 73 % 1030,2 hPa 0,0 l/m 6,9 km/h (2 Bft) W-SW 241 0 min 0,000 mm 0,0 UV-I 0 W/m 3,1 C 7,2 C 9,7 km/h (2 Bft) 95,74 %
14.03.2017 20:52 7,6 C 73 % 1030,1 hPa 0,0 l/m 6,8 km/h (2 Bft) W-SW 253 0 min 0,000 mm 0,0 UV-I 0 W/m 3,1 C 7,3 C 8,0 km/h (2 Bft) 100,00 %
14.03.2017 20:54 7,6 C 74 % 1030,2 hPa 0,0 l/m 6,5 km/h (2 Bft) W-SW 250 0 min 0,000 mm 0,0 UV-I 0 W/m 3,3 C 7,5 C 11,3 km/h (2 Bft) 97,44 %
14.03.2017 20:56 7,6 C 74 % 1030,2 hPa 0,0 l/m 7,7 km/h (2 Bft) W-SW 245 0 min 0,000 mm 0,0 UV-I 0 W/m 3,3 C 6,6 C 12,9 km/h (3 Bft) 96,23 %
14.03.2017 20:58 7,6 C 74 % 1030,2 hPa 0,0 l/m 6,9 km/h (2 Bft) SW 232 0 min 0,000 mm 0,0 UV-I 0 W/m 3,3 C 7,2 C 9,7 km/h (2 Bft) 97,73 %
14.03.2017 21:00 7,6 C 74 % 1030,2 hPa 0,0 l/m 7,5 km/h (2 Bft) SW 234 0 min 0,000 mm 0,0 UV-I 0 W/m 3,3 C 6,7 C 11,3 km/h (2 Bft) 94,34 %
14.03.2017 21:02 7,6 C 74 % 1030,1 hPa 0,0 l/m 9,0 km/h (2 Bft) W-SW 239 0 min 0,025 mm 0,0 UV-I 0 W/m 3,3 C 5,6 C 12,9 km/h (3 Bft) 100,00 %
14.03.2017 21:04 7,6 C 74 % 1030,1 hPa 0,0 l/m 8,2 km/h (2 Bft) SW 232 0 min 0,000 mm 0,0 UV-I 0 W/m 3,3 C 6,2 C 12,9 km/h (3 Bft) 96,23 %
14.03.2017 21:06 7,6 C 75 % 1030,1 hPa 0,0 l/m 9,3 km/h (2 Bft) W-SW 238 0 min 0,000 mm 0,0 UV-I 0 W/m 3,5 C 5,4 C 14,5 km/h (3 Bft) 95,12 %
14.03.2017 21:08 7,5 C 75 % 1030,1 hPa 0,0 l/m 7,8 km/h (2 Bft) SW 223 0 min 0,000 mm 0,0 UV-I 0 W/m 3,4 C 6,4 C 9,7 km/h (2 Bft) 90,00 %
14.03.2017 21:10 7,4 C 75 % 1030,0 hPa 0,0 l/m 7,9 km/h (2 Bft) W-SW 238 0 min 0,000 mm 0,0 UV-I 0 W/m 3,3 C 6,2 C 12,9 km/h (3 Bft) 97,56 %
14.03.2017 21:12 7,4 C 76 % 1030,0 hPa 0,0 l/m 8,6 km/h (2 Bft) SW 225 0 min 0,000 mm 0,0 UV-I 0 W/m 3,5 C 5,7 C 12,9 km/h (3 Bft) 97,56 %
14.03.2017 21:14 7,4 C 76 % 1030,0 hPa 0,0 l/m 10,4 km/h (2 Bft) W-SW 247 0 min 0,000 mm 0,0 UV-I 0 W/m 3,5 C 4,5 C 16,1 km/h (3 Bft) 98,11 %
14.03.2017 21:16 7,4 C 76 % 1030,0 hPa 0,0 l/m 11,1 km/h (2 Bft) SW 216 0 min 0,000 mm 0,0 UV-I 0 W/m 3,5 C 4,0 C 17,7 km/h (3 Bft) 93,75 %
14.03.2017 21:18 7,4 C 76 % 1030,0 hPa 0,0 l/m 10,6 km/h (2 Bft) W-SW 240 0 min 0,000 mm 0,0 UV-I 0 W/m 3,5 C 4,3 C 14,5 km/h (3 Bft) 98,46 %
14.03.2017 21:20 7,4 C 76 % 1030,0 hPa 0,0 l/m 10,7 km/h (2 Bft) W-SW 240 0 min 0,000 mm 0,0 UV-I 0 W/m 3,5 C 4,3 C 14,5 km/h (3 Bft) 98,00 %
14.03.2017 21:22 7,5 C 76 % 1030,0 hPa 0,0 l/m 10,4 km/h (2 Bft) SW 234 0 min 0,000 mm 0,0 UV-I 0 W/m 3,5 C 4,6 C 14,5 km/h (3 Bft) 91,49 %
14.03.2017 21:24 7,5 C 75 % 1030,0 hPa 0,0 l/m 12,6 km/h (3 Bft) SW 225 0 min 0,000 mm 0,0 UV-I 0 W/m 3,4 C 3,3 C 16,1 km/h (3 Bft) 95,45 %
14.03.2017 21:26 7,5 C 75 % 1030,0 hPa 0,0 l/m 11,3 km/h (2 Bft) SW 219 0 min 0,000 mm 0,0 UV-I 0 W/m 3,4 C 4,0 C 17,7 km/h (3 Bft) 97,92 %
14.03.2017 21:28 7,6 C 75 % 1030,0 hPa 0,0 l/m 11,9 km/h (2 Bft) W-SW 244 0 min 0,000 mm 0,0 UV-I 0 W/m 3,5 C 3,8 C 16,1 km/h (3 Bft) 95,12 %
14.03.2017 21:30 7,6 C 75 % 1030,0 hPa 0,0 l/m 9,8 km/h (2 Bft) W-SW 250 0 min 0,000 mm 0,0 UV-I 0 W/m 3,5 C 5,1 C 12,9 km/h (3 Bft) 98,21 %
14.03.2017 21:32 7,6 C 75 % 1030,0 hPa 0,0 l/m 10,8 km/h (2 Bft) W-SW 242 0 min 0,000 mm 0,0 UV-I 0 W/m 3,5 C 4,4 C 17,7 km/h (3 Bft) 93,62 %
14.03.2017 21:34 7,7 C 74 % 1030,0 hPa 0,0 l/m 12,8 km/h (3 Bft) SW 236 0 min 0,000 mm 0,0 UV-I 0 W/m 3,4 C 3,4 C 17,7 km/h (3 Bft) 97,62 %
14.03.2017 21:36 7,7 C 74 % 1030,0 hPa 0,0 l/m 10,7 km/h (2 Bft) SW 236 0 min 0,000 mm 0,0 UV-I 0 W/m 3,4 C 4,6 C 16,1 km/h (3 Bft) 97,73 %
14.03.2017 21:38 7,8 C 74 % 1030,0 hPa 0,0 l/m 10,5 km/h (2 Bft) SW 227 0 min 0,000 mm 0,0 UV-I 0 W/m 3,5 C 4,9 C 16,1 km/h (3 Bft) 94,74 %
14.03.2017 21:40 7,8 C 74 % 1030,0 hPa 0,0 l/m 9,4 km/h (2 Bft) SW 225 0 min 0,000 mm 0,0 UV-I 0 W/m 3,5 C 5,6 C 16,1 km/h (3 Bft) 95,12 %
14.03.2017 21:42 7,8 C 73 % 1030,0 hPa 0,0 l/m 9,0 km/h (2 Bft) W-SW 242 0 min 0,000 mm 0,0 UV-I 0 W/m 3,3 C 5,8 C 14,5 km/h (3 Bft) 95,74 %
14.03.2017 21:44 7,8 C 73 % 1030,0 hPa 0,0 l/m 8,7 km/h (2 Bft) W-SW 246 0 min 0,000 mm 0,0 UV-I 0 W/m 3,3 C 6,0 C 14,5 km/h (3 Bft) 100,00 %
14.03.2017 21:46 7,8 C 73 % 1030,0 hPa 0,0 l/m 9,5 km/h (2 Bft) SW 225 0 min 0,000 mm 0,0 UV-I 0 W/m 3,3 C 5,5 C 14,5 km/h (3 Bft) 97,92 %
14.03.2017 21:48 7,8 C 73 % 1030,0 hPa 0,0 l/m 8,4 km/h (2 Bft) SW 228 0 min 0,000 mm 0,0 UV-I 0 W/m 3,3 C 6,2 C 14,5 km/h (3 Bft) 98,21 %
14.03.2017 21:50 7,8 C 73 % 1030,1 hPa 0,0 l/m 9,2 km/h (2 Bft) W-SW 241 0 min 0,000 mm 0,0 UV-I 0 W/m 3,3 C 5,7 C 14,5 km/h (3 Bft) 100,00 %
14.03.2017 21:52 7,8 C 73 % 1030,1 hPa 0,0 l/m 9,9 km/h (2 Bft) SW 222 0 min 0,000 mm 0,0 UV-I 0 W/m 3,3 C 5,2 C 12,9 km/h (3 Bft) 98,21 %
14.03.2017 21:54 7,8 C 73 % 1030,1 hPa 0,0 l/m 9,5 km/h (2 Bft) SW 217 0 min 0,000 mm 0,0 UV-I 0 W/m 3,3 C 5,5 C 12,9 km/h (3 Bft) 100,00 %
14.03.2017 21:56 7,8 C 73 % 1030,1 hPa 0,0 l/m 11,4 km/h (2 Bft) W-SW 250 0 min 0,000 mm 0,0 UV-I 0 W/m 3,3 C 4,3 C 14,5 km/h (3 Bft) 97,73 %
14.03.2017 21:58 7,8 C 73 % 1030,1 hPa 0,0 l/m 9,9 km/h (2 Bft) W-SW 239 0 min 0,000 mm 0,0 UV-I 0 W/m 3,3 C 5,2 C 16,1 km/h (3 Bft) 98,11 %
14.03.2017 22:00 7,7 C 73 % 1030,1 hPa 0,0 l/m 9,8 km/h (2 Bft) W-SW 240 0 min 0,026 mm 0,0 UV-I 0 W/m 3,2 C 5,2 C 14,5 km/h (3 Bft) 100,00 %
14.03.2017 22:02 7,8 C 73 % 1030,1 hPa 0,0 l/m 9,6 km/h (2 Bft) SW 232 0 min 0,000 mm 0,0 UV-I 0 W/m 3,3 C 5,4 C 16,1 km/h (3 Bft) 97,87 %
14.03.2017 22:04 7,7 C 73 % 1030,1 hPa 0,0 l/m 11,0 km/h (2 Bft) SW 236 0 min 0,000 mm 0,0 UV-I 0 W/m 3,2 C 4,4 C 14,5 km/h (3 Bft) 98,00 %
14.03.2017 22:06 7,8 C 72 % 1030,1 hPa 0,0 l/m 11,2 km/h (2 Bft) SW 231 0 min 0,000 mm 0,0 UV-I 0 W/m 3,1 C 4,4 C 16,1 km/h (3 Bft) 97,56 %
14.03.2017 22:08 7,8 C 72 % 1030,1 hPa 0,0 l/m 9,7 km/h (2 Bft) SW 231 0 min 0,000 mm 0,0 UV-I 0 W/m 3,1 C 5,4 C 16,1 km/h (3 Bft) 98,00 %
14.03.2017 22:10 7,8 C 72 % 1030,1 hPa 0,0 l/m 11,3 km/h (2 Bft) SW 220 0 min 0,000 mm 0,0 UV-I 0 W/m 3,1 C 4,4 C 16,1 km/h (3 Bft) 93,18 %
14.03.2017 22:12 7,8 C 72 % 1030,1 hPa 0,0 l/m 10,7 km/h (2 Bft) SW 226 0 min 0,000 mm 0,0 UV-I 0 W/m 3,1 C 4,7 C 16,1 km/h (3 Bft) 100,00 %
14.03.2017 22:14 7,8 C 72 % 1030,1 hPa 0,0 l/m 9,3 km/h (2 Bft) SW 229 0 min 0,000 mm 0,0 UV-I 0 W/m 3,1 C 5,6 C 14,5 km/h (3 Bft) 92,45 %
14.03.2017 22:16 7,8 C 72 % 1030,0 hPa 0,0 l/m 10,8 km/h (2 Bft) W-SW 238 0 min 0,000 mm 0,0 UV-I 0 W/m 3,1 C 4,7 C 17,7 km/h (3 Bft) 100,00 %
14.03.2017 22:18 7,8 C 72 % 1030,0 hPa 0,0 l/m 10,7 km/h (2 Bft) SW 236 0 min 0,000 mm 0,0 UV-I 0 W/m 3,1 C 4,7 C 16,1 km/h (3 Bft) 98,00 %
14.03.2017 22:20 7,8 C 72 % 1030,0 hPa 0,0 l/m 12,2 km/h (2 Bft) SW 236 0 min 0,000 mm 0,0 UV-I 0 W/m 3,1 C 3,9 C 16,1 km/h (3 Bft) 97,87 %
14.03.2017 22:22 7,8 C 72 % 1030,0 hPa 0,0 l/m 11,7 km/h (2 Bft) SW 221 0 min 0,000 mm 0,0 UV-I 0 W/m 3,1 C 4,1 C 16,1 km/h (3 Bft) 100,00 %
14.03.2017 22:24 7,8 C 72 % 1030,1 hPa 0,0 l/m 9,5 km/h (2 Bft) SW 215 0 min 0,000 mm 0,0 UV-I 0 W/m 3,1 C 5,5 C 12,9 km/h (3 Bft) 98,11 %
14.03.2017 22:26 7,8 C 72 % 1030,0 hPa 0,0 l/m 9,5 km/h (2 Bft) W-SW 240 0 min 0,000 mm 0,0 UV-I 0 W/m 3,1 C 5,5 C 12,9 km/h (3 Bft) 97,37 %
14.03.2017 22:28 7,7 C 72 % 1030,1 hPa 0,0 l/m 8,5 km/h (2 Bft) SW 223 0 min 0,000 mm 0,0 UV-I 0 W/m 3,0 C 6,1 C 11,3 km/h (2 Bft) 98,00 %
14.03.2017 22:30 7,7 C 73 % 1030,1 hPa 0,0 l/m 6,8 km/h (2 Bft) SW 219 0 min 0,000 mm 0,0 UV-I 0 W/m 3,2 C 7,4 C 11,3 km/h (2 Bft) 100,00 %
14.03.2017 22:32 7,7 C 73 % 1030,1 hPa 0,0 l/m 8,2 km/h (2 Bft) W-SW 244 0 min 0,000 mm 0,0 UV-I 0 W/m 3,2 C 6,3 C 12,9 km/h (3 Bft) 94,00 %
14.03.2017 22:34 7,6 C 73 % 1030,1 hPa 0,0 l/m 9,1 km/h (2 Bft) W-SW 251 0 min 0,000 mm 0,0 UV-I 0 W/m 3,1 C 5,5 C 14,5 km/h (3 Bft) 100,00 %
14.03.2017 22:36 7,6 C 72 % 1030,2 hPa 0,0 l/m 10,8 km/h (2 Bft) W 262 0 min 0,000 mm 0,0 UV-I 0 W/m 2,9 C 4,4 C 16,1 km/h (3 Bft) 100,00 %
14.03.2017 22:38 7,6 C 72 % 1030,2 hPa 0,0 l/m 12,9 km/h (3 Bft) SW 220 0 min 0,000 mm 0,0 UV-I 0 W/m 2,9 C 3,3 C 17,7 km/h (3 Bft) 100,00 %
14.03.2017 22:40 7,7 C 72 % 1030,2 hPa 0,0 l/m 11,3 km/h (2 Bft) W-SW 252 0 min 0,000 mm 0,0 UV-I 0 W/m 3,0 C 4,3 C 14,5 km/h (3 Bft) 100,00 %
14.03.2017 22:42 7,7 C 72 % 1030,2 hPa 0,0 l/m 11,1 km/h (2 Bft) SW 226 0 min 0,000 mm 0,0 UV-I 0 W/m 3,0 C 4,4 C 14,5 km/h (3 Bft) 100,00 %
14.03.2017 22:44 7,7 C 72 % 1030,2 hPa 0,0 l/m 12,3 km/h (3 Bft) SW 222 0 min 0,000 mm 0,0 UV-I 0 W/m 3,0 C 3,7 C 17,7 km/h (3 Bft) 100,00 %
14.03.2017 22:46 7,7 C 72 % 1030,2 hPa 0,0 l/m 9,6 km/h (2 Bft) W-SW 246 0 min 0,000 mm 0,0 UV-I 0 W/m 3,0 C 5,3 C 12,9 km/h (3 Bft) 98,00 %
14.03.2017 22:48 7,8 C 72 % 1030,2 hPa 0,0 l/m 10,6 km/h (2 Bft) W 260 0 min 0,000 mm 0,0 UV-I 0 W/m 3,1 C 4,8 C 16,1 km/h (3 Bft) 100,00 %
14.03.2017 22:50 7,7 C 72 % 1030,2 hPa 0,0 l/m 10,4 km/h (2 Bft) W 269 0 min 0,000 mm 0,0 UV-I 0 W/m 3,0 C 4,8 C 12,9 km/h (3 Bft) 97,44 %
14.03.2017 22:52 7,7 C 72 % 1030,3 hPa 0,0 l/m 11,3 km/h (2 Bft) W-SW 256 0 min 0,000 mm 0,0 UV-I 0 W/m 3,0 C 4,3 C 16,1 km/h (3 Bft) 100,00 %
14.03.2017 22:54 7,6 C 72 % 1030,3 hPa 0,0 l/m 10,3 km/h (2 Bft) W-SW 250 0 min 0,000 mm 0,0 UV-I 0 W/m 2,9 C 4,8 C 16,1 km/h (3 Bft) 97,62 %
14.03.2017 22:56 7,6 C 72 % 1030,3 hPa 0,0 l/m 8,3 km/h (2 Bft) W-SW 258 0 min 0,000 mm 0,0 UV-I 0 W/m 2,9 C 6,1 C 12,9 km/h (3 Bft) 100,00 %
14.03.2017 22:58 7,6 C 72 % 1030,3 hPa 0,0 l/m 8,6 km/h (2 Bft) W-SW 243 0 min 0,000 mm 0,0 UV-I 0 W/m 2,9 C 5,9 C 14,5 km/h (3 Bft) 96,23 %
14.03.2017 23:00 7,6 C 72 % 1030,3 hPa 0,0 l/m 12,5 km/h (3 Bft) W-SW 249 0 min 0,000 mm 0,0 UV-I 0 W/m 2,9 C 3,5 C 20,9 km/h (4 Bft) 100,00 %
14.03.2017 23:02 7,6 C 72 % 1030,3 hPa 0,0 l/m 11,3 km/h (2 Bft) W-SW 237 0 min 0,025 mm 0,0 UV-I 0 W/m 2,9 C 4,1 C 16,1 km/h (3 Bft) 100,00 %
14.03.2017 23:04 7,6 C 72 % 1030,2 hPa 0,0 l/m 10,7 km/h (2 Bft) SW 225 0 min 0,000 mm 0,0 UV-I 0 W/m 2,9 C 4,5 C 16,1 km/h (3 Bft) 98,00 %
14.03.2017 23:06 7,6 C 72 % 1030,2 hPa 0,0 l/m 10,6 km/h (2 Bft) W-SW 241 0 min 0,000 mm 0,0 UV-I 0 W/m 2,9 C 4,6 C 16,1 km/h (3 Bft) 100,00 %
14.03.2017 23:08 7,6 C 72 % 1030,2 hPa 0,0 l/m 10,5 km/h (2 Bft) W-SW 250 0 min 0,000 mm 0,0 UV-I 0 W/m 2,9 C 4,6 C 17,7 km/h (3 Bft) 100,00 %
14.03.2017 23:10 7,5 C 72 % 1030,2 hPa 0,0 l/m 10,2 km/h (2 Bft) SW 225 0 min 0,000 mm 0,0 UV-I 0 W/m 2,8 C 4,7 C 14,5 km/h (3 Bft) 98,00 %
14.03.2017 23:12 7,4 C 72 % 1030,2 hPa 0,0 l/m 10,0 km/h (2 Bft) W-SW 252 0 min 0,000 mm 0,0 UV-I 0 W/m 2,7 C 4,7 C 16,1 km/h (3 Bft) 100,00 %
14.03.2017 23:14 7,4 C 73 % 1030,2 hPa 0,0 l/m 10,7 km/h (2 Bft) SW 236 0 min 0,000 mm 0,0 UV-I 0 W/m 2,9 C 4,3 C 14,5 km/h (3 Bft) 96,23 %
14.03.2017 23:16 7,3 C 73 % 1030,2 hPa 0,0 l/m 10,3 km/h (2 Bft) W-SW 244 0 min 0,000 mm 0,0 UV-I 0 W/m 2,8 C 4,4 C 16,1 km/h (3 Bft) 94,00 %
14.03.2017 23:18 7,3 C 73 % 1030,1 hPa 0,0 l/m 10,0 km/h (2 Bft) SW 229 0 min 0,000 mm 0,0 UV-I 0 W/m 2,8 C 4,6 C 14,5 km/h (3 Bft) 97,37 %
14.03.2017 23:20 7,2 C 74 % 1030,1 hPa 0,0 l/m 9,8 km/h (2 Bft) W-SW 244 0 min 0,000 mm 0,0 UV-I 0 W/m 2,9 C 4,6 C 12,9 km/h (3 Bft) 96,23 %
14.03.2017 23:22 7,1 C 74 % 1030,1 hPa 0,0 l/m 10,0 km/h (2 Bft) SW 227 0 min 0,000 mm 0,0 UV-I 0 W/m 2,8 C 4,4 C 12,9 km/h (3 Bft) 97,37 %
14.03.2017 23:24 6,9 C 75 % 1030,0 hPa 0,0 l/m 9,8 km/h (2 Bft) SW 236 0 min 0,000 mm 0,0 UV-I 0 W/m 2,8 C 4,3 C 12,9 km/h (3 Bft) 93,94 %
14.03.2017 23:26 6,9 C 75 % 1030,0 hPa 0,0 l/m 10,1 km/h (2 Bft) W-SW 237 0 min 0,000 mm 0,0 UV-I 0 W/m 2,8 C 4,1 C 14,5 km/h (3 Bft) 96,88 %
14.03.2017 23:28 6,8 C 75 % 1030,1 hPa 0,0 l/m 8,9 km/h (2 Bft) W-SW 257 0 min 0,000 mm 0,0 UV-I 0 W/m 2,7 C 4,8 C 16,1 km/h (3 Bft) 95,24 %
14.03.2017 23:30 6,8 C 75 % 1030,1 hPa 0,0 l/m 7,9 km/h (2 Bft) W-SW 241 0 min 0,000 mm 0,0 UV-I 0 W/m 2,7 C 5,6 C 12,9 km/h (3 Bft) 94,00 %
14.03.2017 23:32 6,8 C 75 % 1030,1 hPa 0,0 l/m 10,4 km/h (2 Bft) SW 232 0 min 0,000 mm 0,0 UV-I 0 W/m 2,7 C 3,8 C 16,1 km/h (3 Bft) 98,18 %
14.03.2017 23:34 6,7 C 76 % 1030,1 hPa 0,0 l/m 10,0 km/h (2 Bft) SW 235 0 min 0,000 mm 0,0 UV-I 0 W/m 2,8 C 4,0 C 14,5 km/h (3 Bft) 97,62 %
14.03.2017 23:36 6,7 C 76 % 1030,0 hPa 0,0 l/m 9,0 km/h (2 Bft) S-SW 213 0 min 0,000 mm 0,0 UV-I 0 W/m 2,8 C 4,6 C 16,1 km/h (3 Bft) 94,34 %
14.03.2017 23:38 6,7 C 76 % 1030,0 hPa 0,0 l/m 11,1 km/h (2 Bft) W-SW 242 0 min 0,000 mm 0,0 UV-I 0 W/m 2,8 C 3,2 C 14,5 km/h (3 Bft) 92,68 %
14.03.2017 23:40 6,6 C 76 % 1030,0 hPa 0,0 l/m 11,3 km/h (2 Bft) SW 236 0 min 0,000 mm 0,0 UV-I 0 W/m 2,7 C 3,0 C 16,1 km/h (3 Bft) 96,00 %
14.03.2017 23:42 6,6 C 76 % 1030,0 hPa 0,0 l/m 10,6 km/h (2 Bft) SW 225 0 min 0,000 mm 0,0 UV-I 0 W/m 2,7 C 3,4 C 14,5 km/h (3 Bft) 92,00 %
14.03.2017 23:44 6,6 C 77 % 1030,1 hPa 0,0 l/m 12,2 km/h (2 Bft) SW 236 0 min 0,000 mm 0,0 UV-I 0 W/m 2,9 C 2,5 C 16,1 km/h (3 Bft) 94,74 %
14.03.2017 23:46 6,5 C 77 % 1030,1 hPa 0,0 l/m 10,6 km/h (2 Bft) SW 225 0 min 0,000 mm 0,0 UV-I 0 W/m 2,8 C 3,3 C 14,5 km/h (3 Bft) 94,64 %
14.03.2017 23:48 6,4 C 77 % 1030,0 hPa 0,0 l/m 10,7 km/h (2 Bft) W-SW 248 0 min 0,000 mm 0,0 UV-I 0 W/m 2,7 C 3,2 C 14,5 km/h (3 Bft) 93,10 %
14.03.2017 23:50 6,4 C 77 % 1030,0 hPa 0,0 l/m 11,3 km/h (2 Bft) S-SW 208 0 min 0,000 mm 0,0 UV-I 0 W/m 2,7 C 2,8 C 17,7 km/h (3 Bft) 98,11 %
14.03.2017 23:52 6,4 C 77 % 1030,0 hPa 0,0 l/m 10,3 km/h (2 Bft) SW 222 0 min 0,000 mm 0,0 UV-I 0 W/m 2,7 C 3,4 C 14,5 km/h (3 Bft) 94,64 %
14.03.2017 23:54 6,4 C 77 % 1030,0 hPa 0,0 l/m 10,0 km/h (2 Bft) SW 229 0 min 0,000 mm 0,0 UV-I 0 W/m 2,7 C 3,6 C 14,5 km/h (3 Bft) 97,73 %
14.03.2017 23:56 6,4 C 77 % 1030,0 hPa 0,0 l/m 11,3 km/h (2 Bft) SW 225 0 min 0,000 mm 0,0 UV-I 0 W/m 2,7 C 2,8 C 16,1 km/h (3 Bft) 97,87 %
14.03.2017 23:58 6,4 C 77 % 1030,0 hPa 0,0 l/m 9,6 km/h (2 Bft) SW 230 0 min 0,000 mm 0,0 UV-I 0 W/m 2,7 C 3,9 C 14,5 km/h (3 Bft) 97,87 %
_ Min-Zeit 06:42 12:58 00:00 - 04:18 - - - - - - 11:26 07:30 04:16 07:34
Minimum _ 2,8 C 52 % 1028,1 hPa - 0,3 km/h (0 Bft) - - - - - - 0,3 C -1,5 C 1,6 km/h (1 Bft) 89,29 %
_ Max-Zeit 15:02 00:00 10:18 00:00 14:12 - - 06:30 15:00 12:34 09:10 21:22 15:44 10:34 00:00
Maximum _ 11,1 C 86 % 1031,5 hPa 0,0 l/m 21,7 km/h
W (4 Bft)
- - 2 min 0,228 mm 1,4 UV-I 472 W/m 3,5 C 9,7 C 32,2 km/h
W-SW (5 Bft)
100,00 %
Durchschnitt _ 7,0 C 71 % 1029,9 hPa #0,0 l/m 9,7 km/h (2 Bft) W-SW - #3:24 h #1,727 mm 0,9 UV-I 187 W/m 1,9 C 4,6 C 14,7 km/h (3 Bft) 96,67 %